GEFSSGP_prec_meanprecacc_330.txt.gz
Total_Precipitation_Accumulation
0.18 0.43 0.78 1.27 1.98 2.54 2.63 2.00 1.47 1.25 1.05 0.95 0.76 0.68 0.78 1.08 1.46 2.35 2.51 2.20 1.61 1.60 1.80 1.78 1.81 1.60 1.54 1.52 1.52 1.55 1.58 1.65 1.60 1.71 2.05 2.29 2.54 2.87 3.06 3.28 3.52 3.81 3.79 3.34 2.98 2.55 2.32 2.29 2.15
0.33 0.56 0.95 1.57 2.32 2.92 2.68 1.79 1.34 1.13 0.85 0.75 0.70 0.67 0.80 0.98 1.08 1.51 2.03 1.82 1.32 1.30 1.37 1.33 1.53 1.54 1.48 1.39 1.31 1.32 1.41 1.52 1.59 1.73 2.04 2.33 2.57 2.91 3.05 3.22 3.42 3.53 3.29 3.02 2.56 2.21 2.09 2.00 1.80
0.53 0.76 1.03 1.55 1.92 2.44 2.19 1.60 1.10 0.86 0.73 0.76 0.90 0.82 1.04 1.40 1.45 1.74 1.73 1.36 1.16 1.15 1.16 1.39 1.47 1.42 1.40 1.25 1.23 1.28 1.38 1.46 1.57 1.72 2.02 2.34 2.70 2.90 2.98 2.98 3.18 3.04 2.82 2.64 2.40 2.18 1.94 1.75 1.58
0.57 0.85 1.05 1.30 1.38 1.32 1.39 1.39 0.98 0.94 0.90 0.77 0.86 1.18 1.36 1.51 1.51 1.69 1.57 1.28 1.00 1.04 1.12 1.31 1.42 1.38 1.48 1.32 1.24 1.36 1.45 1.57 1.69 1.94 2.16 2.24 2.52 2.64 2.66 2.78 3.00 2.87 2.69 2.47 2.24 1.96 1.71 1.52 1.36
0.49 0.81 1.13 1.21 1.25 1.10 1.02 1.01 0.82 0.88 0.90 0.84 0.89 1.43 1.84 1.84 1.45 1.40 1.37 1.27 0.99 1.18 1.31 1.28 1.39 1.40 1.48 1.42 1.27 1.40 1.59 1.76 1.79 1.94 2.06 2.07 2.24 2.33 2.47 2.69 2.79 2.64 2.45 2.20 2.02 1.78 1.50 1.39 1.36
0.48 0.79 1.13 1.11 1.11 0.89 0.85 0.82 0.74 0.78 0.85 0.92 1.10 1.56 2.14 2.07 1.70 1.58 1.49 1.36 1.11 1.14 1.27 1.33 1.57 1.56 1.56 1.53 1.39 1.43 1.64 1.75 1.81 1.82 1.80 1.88 2.03 2.16 2.39 2.60 2.68 2.44 2.09 1.94 1.87 1.68 1.47 1.37 1.35
0.50 0.58 0.87 0.82 0.92 0.89 0.77 0.64 0.69 0.91 1.15 1.19 1.28 1.71 2.11 2.50 2.22 1.89 1.79 1.67 1.39 1.28 1.27 1.33 1.50 1.47 1.57 1.67 1.59 1.64 1.81 1.85 1.79 1.78 1.78 1.83 2.01 2.19 2.36 2.56 2.67 2.31 1.95 1.84 1.74 1.62 1.46 1.33 1.34
0.37 0.36 0.51 0.69 0.79 0.84 0.67 0.57 0.60 0.80 1.18 1.13 1.18 1.54 2.10 2.14 2.10 2.26 2.22 2.20 1.89 1.70 1.49 1.43 1.56 1.64 1.56 1.63 1.69 1.82 1.90 1.97 2.06 2.09 2.16 2.26 2.35 2.31 2.47 2.52 2.57 2.28 2.02 1.90 1.79 1.71 1.52 1.43 1.40
0.22 0.32 0.35 0.52 0.62 0.61 0.47 0.48 0.51 0.67 0.84 1.01 1.22 1.30 1.58 1.52 1.74 2.18 2.45 2.71 2.62 2.06 1.85 1.66 1.50 1.55 1.58 1.62 1.83 2.22 2.24 2.18 2.29 2.48 2.54 2.58 2.79 2.83 2.99 2.75 2.69 2.45 2.31 2.25 2.11 2.05 1.90 1.68 1.56
0.17 0.29 0.25 0.26 0.32 0.34 0.33 0.37 0.40 0.70 1.14 1.53 1.67 1.57 1.55 1.61 2.00 2.32 2.38 2.50 2.66 2.23 1.89 1.82 1.70 1.59 1.54 1.49 1.88 2.48 2.33 2.23 2.36 2.59 2.56 2.79 3.28 3.57 3.18 3.27 3.25 3.09 3.01 2.90 2.86 2.84 2.40 1.92 1.90
0.09 0.14 0.17 0.19 0.21 0.22 0.26 0.33 0.38 0.65 1.24 1.62 1.77 1.78 1.81 1.80 2.20 2.56 2.71 2.56 2.57 2.38 2.03 1.94 1.86 1.84 1.87 1.99 1.97 2.29 2.50 2.60 2.67 2.72 2.79 3.10 3.27 3.50 3.63 3.67 3.74 3.81 3.54 3.24 3.43 3.29 2.55 2.52 2.88
0.05 0.07 0.11 0.16 0.19 0.22 0.24 0.28 0.48 0.67 1.06 1.38 1.44 1.83 2.05 2.02 2.38 2.63 2.79 2.93 2.78 2.64 2.32 2.10 1.98 2.05 2.17 2.13 2.17 2.25 2.46 2.59 2.77 2.94 2.91 3.27 3.77 3.94 4.12 4.10 3.93 4.08 3.90 3.97 3.87 3.88 3.35 3.32 3.01
0.05 0.07 0.09 0.12 0.17 0.21 0.25 0.30 0.36 0.69 0.87 1.11 1.34 1.73 1.97 2.03 2.41 2.74 3.02 3.13 3.08 2.80 2.51 2.44 2.16 2.15 2.24 2.44 2.60 2.38 2.80 2.92 3.02 3.24 3.37 3.53 3.90 4.05 4.23 4.27 4.27 3.82 3.80 4.00 4.33 4.10 4.27 4.22 3.70
0.05 0.06 0.09 0.11 0.15 0.20 0.35 0.45 0.46 0.85 0.91 1.05 1.33 1.77 1.88 1.93 2.18 2.22 2.59 2.95 3.04 2.77 2.62 2.59 2.41 2.48 2.58 2.68 2.84 2.94 3.19 3.44 3.39 3.45 3.57 3.72 3.99 4.36 4.48 4.50 4.43 3.93 3.76 4.05 4.37 4.28 4.79 4.67 4.42
0.06 0.11 0.17 0.19 0.22 0.29 0.40 0.69 0.74 0.95 1.03 1.26 1.31 1.51 1.70 1.74 1.91 2.13 2.40 2.74 2.82 2.58 2.69 2.87 2.92 3.17 3.29 3.29 3.29 3.29 3.48 3.62 3.81 4.17 4.24 4.36 4.34 4.56 4.43 4.44 4.28 4.10 4.00 4.15 4.31 4.44 4.80 4.48 4.39
0.11 0.22 0.34 0.36 0.32 0.36 0.58 1.20 1.08 1.14 1.12 1.20 1.20 1.37 1.48 1.58 1.83 2.13 2.29 2.58 2.77 2.65 2.73 2.96 3.06 3.46 3.66 3.75 3.89 3.81 3.85 3.94 4.29 4.55 4.80 4.77 4.58 4.42 4.58 4.33 4.11 4.19 4.11 4.34 4.73 4.75 4.82 4.90 4.77
0.19 0.26 0.37 0.44 0.31 0.31 0.54 0.98 0.93 1.01 1.23 1.15 1.14 1.23 1.26 1.38 1.55 1.76 2.04 2.40 2.73 2.98 3.24 3.59 3.72 3.65 3.75 3.97 4.18 3.99 4.08 4.15 4.19 4.36 4.71 4.64 4.27 4.10 4.59 4.49 4.48 4.38 4.58 4.54 4.18 4.81 5.05 5.05 4.98
0.16 0.22 0.32 0.39 0.36 0.32 0.47 0.69 0.84 0.94 1.06 1.17 1.17 1.27 1.35 1.52 1.77 1.98 2.33 2.57 2.84 3.35 3.74 3.98 4.01 4.25 4.55 4.77 4.70 4.51 4.27 4.19 4.09 4.19 4.43 4.34 4.27 4.15 4.51 4.35 4.37 4.53 4.96 5.06 4.91 5.24 5.12 4.91 4.97
0.16 0.23 0.29 0.32 0.38 0.43 0.52 0.60 0.88 1.12 1.24 1.40 1.56 1.78 1.96 2.15 2.23 2.44 2.85 3.12 3.31 3.45 3.68 3.95 4.34 4.74 4.88 4.72 4.67 4.71 4.60 4.47 4.14 4.03 4.19 4.24 3.98 3.99 4.43 4.16 4.63 4.63 4.82 4.95 4.85 5.09 4.94 4.70 4.77
0.17 0.24 0.33 0.38 0.40 0.42 0.61 0.72 0.93 1.37 1.55 1.52 1.56 1.55 1.60 2.04 2.27 2.52 2.86 3.05 3.02 3.19 3.47 3.86 4.32 4.67 4.60 4.75 5.01 5.03 4.93 4.41 4.16 4.09 4.18 4.04 3.78 3.66 3.80 4.42 4.38 4.46 4.69 4.74 4.71 4.76 4.48 4.18 4.57
0.17 0.21 0.28 0.36 0.50 0.48 0.62 1.07 1.21 1.49 1.64 1.50 1.44 1.45 1.41 1.60 1.93 2.11 2.32 2.54 2.75 3.16 3.59 3.93 4.26 4.40 4.45 4.71 4.89 4.65 4.53 4.15 4.12 4.17 4.10 3.88 3.73 3.66 3.81 4.16 4.23 4.32 4.21 4.45 4.68 4.51 4.43 4.31 4.38
0.19 0.17 0.20 0.29 0.50 0.65 0.72 1.41 1.66 1.84 1.74 1.43 1.44 1.49 1.59 1.71 1.79 1.92 2.00 2.33 2.72 3.13 3.71 4.15 4.18 4.26 4.16 4.36 4.53 4.40 4.12 3.94 3.85 3.85 3.65 3.56 3.45 3.40 3.54 3.78 4.01 4.17 4.06 4.24 4.07 4.21 4.41 4.48 4.30
0.15 0.15 0.17 0.27 0.41 0.65 0.78 1.22 1.71 1.79 1.73 1.37 1.26 1.46 1.68 1.66 1.70 1.94 1.91 2.13 2.42 2.84 3.26 3.70 4.06 4.15 3.99 3.98 4.12 4.30 4.12 3.86 3.64 3.50 3.45 3.43 3.43 3.25 3.28 3.50 3.73 3.84 3.76 3.78 3.98 4.34 4.28 4.25 4.17
0.12 0.17 0.27 0.40 0.62 1.05 0.82 0.93 1.39 1.66 1.56 1.28 1.27 1.39 1.56 1.71 1.70 1.86 2.14 2.22 2.38 2.66 3.05 3.32 3.54 3.54 3.52 3.52 3.60 3.74 3.82 3.80 3.56 3.33 3.37 3.37 3.28 3.16 3.13 3.24 3.57 3.64 3.58 3.58 3.75 3.87 3.93 3.97 4.11
0.14 0.30 0.75 1.18 1.44 1.24 0.83 0.92 1.31 1.28 1.09 1.01 1.09 1.34 1.58 1.85 1.85 1.88 2.08 2.22 2.32 2.43 2.63 2.81 2.88 2.94 2.93 2.97 2.98 3.00 3.14 3.23 3.12 3.04 3.12 3.17 3.10 3.01 3.02 3.03 3.20 3.16 3.16 3.28 3.57 3.62 3.56 3.60 3.75
0.18 0.33 0.79 1.08 1.19 1.09 0.99 1.22 1.31 1.06 0.92 0.93 1.01 1.19 1.46 1.63 1.67 1.76 1.85 1.81 1.83 1.89 2.03 2.18 2.27 2.32 2.29 2.39 2.51 2.53 2.75 2.79 2.82 2.95 2.82 2.89 2.86 2.87 2.83 2.74 2.73 2.69 2.76 2.88 3.30 3.38 3.32 3.45 3.45
0.26 0.36 0.38 0.61 0.74 1.13 1.34 1.44 1.33 1.01 1.16 1.14 1.23 1.27 1.27 1.32 1.36 1.38 1.41 1.48 1.59 1.64 1.71 1.83 1.93 1.97 1.92 2.00 2.18 2.23 2.31 2.46 2.60 2.70 2.57 2.45 2.54 2.46 2.61 2.56 2.43 2.40 2.56 2.76 2.96 3.02 3.03 3.19 3.17
0.28 0.42 0.55 0.81 1.09 1.29 1.44 1.70 1.88 1.66 1.61 1.51 1.63 1.76 1.45 1.17 1.19 1.22 1.21 1.26 1.30 1.35 1.50 1.66 1.76 1.94 1.99 2.00 2.10 2.00 2.10 2.22 2.38 2.45 2.30 2.31 2.44 2.45 2.43 2.43 2.34 2.31 2.33 2.43 2.70 2.72 2.81 2.87 2.91
0.38 0.48 0.57 0.74 0.86 1.17 1.58 1.79 1.53 1.72 1.78 1.71 1.58 1.56 1.41 1.06 0.97 1.07 1.01 1.04 1.12 1.19 1.34 1.51 1.77 1.98 1.97 1.84 1.93 1.98 1.97 2.10 2.16 2.17 2.08 2.19 2.32 2.49 2.46 2.45 2.46 2.34 2.27 2.36 2.50 2.35 2.55 2.58 2.63
0.33 0.48 0.58 0.78 0.87 0.97 1.26 1.56 1.16 1.35 1.35 1.24 1.26 1.12 1.04 0.96 0.78 0.89 0.94 0.90 0.96 1.02 1.15 1.34 1.56 1.75 1.80 1.75 1.78 1.93 2.01 1.99 1.94 1.89 1.93 1.99 2.03 2.13 2.15 2.12 2.13 2.17 2.34 2.46 2.38 2.34 2.38 2.45 2.40

GEFSSGP_prec_meanprecacc_336.txt.gz
Total_Precipitation_Accumulation
0.19 0.43 0.79 1.30 2.06 2.63 2.69 2.06 1.52 1.30 1.07 0.97 0.78 0.68 0.79 1.11 1.53 2.52 2.68 2.37 1.78 1.76 1.93 1.88 1.91 1.72 1.70 1.75 1.73 1.72 1.75 1.82 1.73 1.83 2.18 2.42 2.65 3.00 3.20 3.45 3.72 4.03 3.97 3.47 3.08 2.67 2.45 2.40 2.25
0.34 0.57 0.98 1.64 2.44 2.99 2.76 1.85 1.39 1.17 0.87 0.77 0.70 0.68 0.81 1.00 1.12 1.59 2.13 1.95 1.49 1.47 1.50 1.43 1.62 1.65 1.66 1.62 1.49 1.48 1.56 1.65 1.72 1.86 2.17 2.46 2.71 3.04 3.19 3.38 3.58 3.70 3.44 3.13 2.66 2.28 2.18 2.09 1.90
0.55 0.78 1.09 1.65 2.00 2.51 2.25 1.63 1.13 0.89 0.74 0.77 0.90 0.82 1.06 1.43 1.50 1.81 1.79 1.44 1.30 1.30 1.30 1.48 1.53 1.52 1.58 1.41 1.38 1.44 1.52 1.58 1.70 1.86 2.17 2.50 2.84 3.03 3.12 3.14 3.34 3.18 2.94 2.75 2.50 2.26 2.03 1.85 1.70
0.60 0.88 1.10 1.38 1.44 1.36 1.42 1.40 0.99 0.95 0.91 0.77 0.87 1.19 1.38 1.54 1.55 1.74 1.61 1.32 1.08 1.17 1.27 1.41 1.48 1.49 1.65 1.47 1.34 1.48 1.57 1.67 1.79 2.06 2.28 2.35 2.65 2.79 2.85 2.96 3.16 3.01 2.82 2.60 2.35 2.11 1.89 1.67 1.52
0.52 0.87 1.21 1.28 1.28 1.12 1.04 1.02 0.83 0.88 0.90 0.84 0.90 1.44 1.87 1.87 1.47 1.42 1.39 1.30 1.06 1.27 1.43 1.39 1.49 1.51 1.64 1.58 1.38 1.52 1.74 1.89 1.88 2.06 2.18 2.16 2.38 2.51 2.65 2.85 2.95 2.82 2.60 2.33 2.14 1.97 1.81 1.62 1.58
0.52 0.89 1.21 1.16 1.14 0.91 0.86 0.82 0.74 0.78 0.86 0.92 1.11 1.58 2.17 2.09 1.72 1.60 1.51 1.40 1.17 1.21 1.38 1.45 1.67 1.66 1.67 1.69 1.54 1.59 1.79 1.88 1.93 1.97 1.93 2.01 2.23 2.36 2.55 2.74 2.85 2.63 2.25 2.08 1.98 1.83 1.72 1.62 1.58
0.54 0.63 0.92 0.85 0.93 0.91 0.78 0.64 0.70 0.91 1.16 1.19 1.28 1.72 2.13 2.52 2.23 1.90 1.81 1.70 1.44 1.33 1.34 1.41 1.59 1.57 1.67 1.80 1.76 1.78 1.95 1.99 1.94 1.95 1.95 2.02 2.20 2.38 2.55 2.71 2.85 2.49 2.09 1.96 1.85 1.72 1.59 1.49 1.48
0.40 0.41 0.55 0.70 0.79 0.86 0.68 0.58 0.60 0.81 1.19 1.13 1.18 1.55 2.12 2.16 2.11 2.28 2.24 2.23 1.93 1.74 1.53 1.48 1.62 1.72 1.65 1.75 1.85 1.98 2.06 2.18 2.27 2.28 2.31 2.40 2.47 2.43 2.62 2.68 2.73 2.41 2.13 2.02 1.93 1.83 1.63 1.57 1.52
0.23 0.38 0.39 0.54 0.63 0.62 0.48 0.48 0.52 0.67 0.84 1.01 1.23 1.31 1.59 1.54 1.75 2.20 2.48 2.74 2.66 2.10 1.90 1.71 1.55 1.61 1.67 1.73 1.99 2.40 2.47 2.45 2.53 2.68 2.69 2.70 2.92 2.95 3.13 2.92 2.82 2.54 2.38 2.37 2.28 2.20 2.03 1.84 1.69
0.19 0.32 0.26 0.27 0.33 0.34 0.33 0.38 0.41 0.71 1.15 1.53 1.68 1.58 1.56 1.62 2.01 2.34 2.41 2.53 2.70 2.27 1.93 1.86 1.74 1.63 1.57 1.55 1.99 2.62 2.48 2.41 2.53 2.74 2.69 2.93 3.43 3.73 3.34 3.43 3.39 3.19 3.08 2.99 2.97 2.96 2.52 2.04 2.01
0.09 0.15 0.18 0.20 0.22 0.23 0.27 0.33 0.39 0.66 1.26 1.64 1.79 1.79 1.81 1.81 2.22 2.59 2.74 2.59 2.60 2.43 2.06 1.97 1.89 1.89 1.91 2.03 2.04 2.38 2.60 2.73 2.82 2.87 2.92 3.24 3.41 3.65 3.79 3.83 3.89 3.94 3.63 3.33 3.53 3.38 2.66 2.65 3.01
0.05 0.08 0.11 0.16 0.19 0.23 0.24 0.28 0.48 0.68 1.07 1.39 1.46 1.84 2.06 2.03 2.40 2.66 2.81 2.95 2.81 2.67 2.35 2.13 2.02 2.08 2.22 2.18 2.22 2.32 2.53 2.69 2.91 3.11 3.07 3.41 3.92 4.07 4.25 4.23 4.10 4.25 4.05 4.11 4.02 4.03 3.49 3.45 3.14
0.06 0.07 0.09 0.12 0.17 0.21 0.25 0.30 0.37 0.70 0.88 1.12 1.35 1.74 1.97 2.03 2.42 2.75 3.03 3.15 3.10 2.82 2.53 2.46 2.19 2.17 2.27 2.49 2.67 2.45 2.88 3.01 3.13 3.41 3.54 3.65 4.01 4.15 4.33 4.37 4.40 3.96 3.94 4.13 4.46 4.22 4.37 4.32 3.80
0.05 0.06 0.09 0.11 0.15 0.20 0.35 0.46 0.46 0.85 0.91 1.06 1.33 1.77 1.88 1.93 2.19 2.23 2.60 2.96 3.06 2.79 2.64 2.61 2.44 2.50 2.61 2.73 2.91 3.00 3.26 3.55 3.52 3.64 3.76 3.87 4.11 4.48 4.57 4.58 4.53 4.04 3.86 4.13 4.44 4.35 4.86 4.76 4.51
0.06 0.11 0.17 0.19 0.22 0.29 0.40 0.69 0.74 0.95 1.03 1.26 1.31 1.51 1.70 1.74 1.92 2.14 2.41 2.76 2.84 2.60 2.70 2.89 2.95 3.20 3.32 3.33 3.34 3.33 3.53 3.67 3.89 4.31 4.42 4.54 4.51 4.71 4.55 4.53 4.36 4.20 4.08 4.22 4.37 4.50 4.87 4.55 4.45
0.11 0.23 0.35 0.36 0.32 0.36 0.59 1.21 1.09 1.14 1.13 1.20 1.20 1.38 1.48 1.59 1.83 2.14 2.29 2.58 2.77 2.66 2.74 2.97 3.08 3.48 3.68 3.78 3.92 3.85 3.89 3.98 4.33 4.61 4.89 4.87 4.70 4.57 4.74 4.48 4.23 4.30 4.21 4.43 4.82 4.82 4.88 4.97 4.84
0.20 0.28 0.39 0.44 0.31 0.31 0.54 0.99 0.95 1.02 1.23 1.15 1.15 1.24 1.28 1.39 1.56 1.78 2.05 2.40 2.73 2.99 3.25 3.61 3.74 3.67 3.77 3.99 4.21 4.01 4.12 4.18 4.23 4.40 4.77 4.71 4.35 4.21 4.76 4.67 4.64 4.52 4.73 4.68 4.30 4.93 5.13 5.13 5.05
0.18 0.24 0.33 0.40 0.36 0.32 0.47 0.69 0.85 0.95 1.07 1.18 1.18 1.28 1.37 1.53 1.77 1.99 2.34 2.57 2.85 3.36 3.76 4.00 4.03 4.28 4.58 4.79 4.73 4.54 4.31 4.23 4.12 4.23 4.49 4.40 4.34 4.22 4.63 4.52 4.54 4.70 5.14 5.24 5.07 5.37 5.22 5.01 5.05
0.16 0.24 0.30 0.33 0.38 0.43 0.53 0.60 0.88 1.12 1.24 1.40 1.56 1.79 1.97 2.17 2.24 2.44 2.85 3.12 3.32 3.46 3.70 3.98 4.37 4.77 4.92 4.75 4.70 4.74 4.66 4.51 4.18 4.07 4.23 4.28 4.03 4.04 4.50 4.28 4.79 4.79 4.98 5.12 5.00 5.22 5.06 4.80 4.88
0.17 0.24 0.33 0.38 0.40 0.43 0.62 0.73 0.93 1.37 1.55 1.52 1.56 1.56 1.61 2.05 2.27 2.53 2.87 3.05 3.03 3.20 3.48 3.87 4.34 4.70 4.63 4.77 5.03 5.06 4.99 4.48 4.22 4.15 4.24 4.09 3.82 3.71 3.85 4.49 4.47 4.57 4.83 4.87 4.83 4.87 4.59 4.28 4.68
0.17 0.21 0.28 0.36 0.50 0.49 0.63 1.09 1.22 1.49 1.64 1.50 1.44 1.45 1.42 1.61 1.94 2.11 2.33 2.55 2.76 3.16 3.60 3.94 4.28 4.42 4.47 4.73 4.91 4.67 4.57 4.19 4.18 4.24 4.16 3.94 3.77 3.71 3.87 4.22 4.29 4.38 4.29 4.55 4.78 4.59 4.51 4.40 4.48
0.19 0.18 0.20 0.29 0.50 0.66 0.73 1.44 1.68 1.84 1.74 1.43 1.44 1.49 1.59 1.71 1.79 1.93 2.00 2.33 2.72 3.13 3.72 4.16 4.19 4.27 4.17 4.37 4.55 4.42 4.14 3.98 3.92 3.94 3.72 3.61 3.49 3.43 3.59 3.84 4.08 4.22 4.12 4.32 4.15 4.28 4.49 4.57 4.39
0.15 0.15 0.17 0.27 0.41 0.65 0.78 1.24 1.72 1.80 1.73 1.37 1.27 1.46 1.68 1.66 1.70 1.94 1.91 2.14 2.42 2.85 3.26 3.70 4.06 4.15 3.99 3.99 4.13 4.32 4.15 3.90 3.70 3.58 3.51 3.46 3.46 3.28 3.30 3.53 3.77 3.89 3.81 3.83 4.04 4.42 4.35 4.32 4.25
0.12 0.17 0.27 0.40 0.63 1.05 0.82 0.94 1.40 1.67 1.57 1.29 1.28 1.40 1.56 1.72 1.70 1.86 2.14 2.22 2.38 2.66 3.05 3.33 3.55 3.55 3.53 3.54 3.62 3.76 3.85 3.85 3.62 3.40 3.42 3.40 3.31 3.19 3.16 3.27 3.60 3.68 3.61 3.62 3.80 3.94 3.99 4.04 4.19
0.14 0.30 0.75 1.19 1.45 1.24 0.84 0.92 1.32 1.28 1.10 1.01 1.09 1.34 1.59 1.86 1.85 1.88 2.08 2.22 2.32 2.43 2.63 2.81 2.89 2.95 2.95 2.99 3.00 3.02 3.17 3.27 3.16 3.08 3.16 3.20 3.13 3.05 3.06 3.07 3.23 3.19 3.19 3.32 3.62 3.67 3.61 3.67 3.81
0.18 0.33 0.80 1.09 1.20 1.10 1.01 1.23 1.31 1.06 0.92 0.93 1.01 1.20 1.48 1.64 1.67 1.77 1.86 1.81 1.83 1.90 2.04 2.19 2.29 2.33 2.31 2.41 2.54 2.57 2.78 2.83 2.85 2.98 2.84 2.91 2.89 2.91 2.87 2.78 2.76 2.72 2.80 2.91 3.35 3.43 3.38 3.49 3.50
0.26 0.36 0.38 0.61 0.75 1.14 1.34 1.44 1.33 1.01 1.16 1.14 1.23 1.28 1.27 1.32 1.36 1.38 1.41 1.48 1.59 1.64 1.72 1.83 1.94 1.98 1.93 2.01 2.19 2.25 2.32 2.49 2.63 2.72 2.59 2.47 2.57 2.50 2.66 2.61 2.47 2.44 2.60 2.81 3.01 3.07 3.08 3.25 3.21
0.28 0.42 0.55 0.81 1.11 1.31 1.45 1.71 1.89 1.66 1.61 1.51 1.63 1.76 1.45 1.17 1.19 1.22 1.21 1.26 1.30 1.35 1.50 1.66 1.76 1.95 1.99 2.02 2.11 2.01 2.12 2.24 2.40 2.47 2.32 2.34 2.48 2.50 2.48 2.48 2.38 2.35 2.37 2.47 2.74 2.76 2.86 2.92 2.95
0.38 0.48 0.57 0.74 0.87 1.19 1.60 1.81 1.55 1.73 1.79 1.71 1.58 1.56 1.41 1.07 0.98 1.07 1.01 1.04 1.12 1.20 1.34 1.51 1.77 1.99 1.98 1.85 1.96 2.02 2.01 2.14 2.21 2.21 2.12 2.23 2.37 2.54 2.51 2.51 2.51 2.40 2.33 2.41 2.55 2.40 2.61 2.64 2.68
0.33 0.49 0.59 0.80 0.90 0.99 1.29 1.57 1.16 1.36 1.35 1.24 1.26 1.12 1.04 0.97 0.79 0.89 0.94 0.90 0.96 1.02 1.15 1.35 1.58 1.76 1.81 1.76 1.80 1.96 2.05 2.06 2.05 1.98 1.99 2.05 2.08 2.17 2.19 2.16 2.20 2.24 2.42 2.55 2.46 2.41 2.44 2.51 2.45

GEFSSGP_prec_meanprecacc_342.txt.gz
Total_Precipitation_Accumulation
0.20 0.47 0.86 1.39 2.18 2.71 2.74 2.11 1.55 1.32 1.09 0.98 0.79 0.71 0.83 1.19 1.67 2.71 2.85 2.47 1.85 1.83 2.01 1.96 2.02 1.83 1.78 1.81 1.78 1.77 1.81 1.88 1.80 1.90 2.26 2.50 2.73 3.08 3.29 3.57 3.84 4.14 4.06 3.52 3.12 2.72 2.52 2.46 2.35
0.37 0.63 1.09 1.75 2.53 3.06 2.82 1.89 1.42 1.18 0.88 0.77 0.72 0.70 0.84 1.07 1.20 1.72 2.27 2.04 1.55 1.53 1.57 1.54 1.76 1.79 1.78 1.71 1.55 1.54 1.64 1.73 1.79 1.93 2.25 2.56 2.82 3.15 3.28 3.47 3.67 3.79 3.51 3.18 2.69 2.32 2.24 2.15 1.98
0.59 0.87 1.23 1.78 2.09 2.57 2.30 1.65 1.14 0.89 0.75 0.78 0.93 0.84 1.09 1.49 1.54 1.89 1.89 1.51 1.35 1.36 1.36 1.57 1.68 1.69 1.74 1.55 1.48 1.52 1.62 1.67 1.77 1.92 2.24 2.58 2.93 3.12 3.20 3.22 3.40 3.25 3.00 2.80 2.54 2.29 2.10 1.92 1.77
0.66 1.02 1.28 1.50 1.51 1.39 1.44 1.41 0.99 0.95 0.92 0.79 0.92 1.24 1.42 1.57 1.59 1.81 1.68 1.37 1.12 1.21 1.32 1.50 1.62 1.65 1.81 1.63 1.48 1.59 1.66 1.75 1.85 2.12 2.36 2.42 2.73 2.88 2.93 3.03 3.22 3.08 2.89 2.66 2.40 2.15 1.97 1.76 1.60
0.61 1.01 1.34 1.34 1.31 1.14 1.05 1.03 0.83 0.88 0.91 0.87 0.94 1.47 1.92 1.91 1.53 1.48 1.43 1.32 1.09 1.31 1.48 1.49 1.66 1.71 1.85 1.79 1.52 1.63 1.84 1.97 1.95 2.14 2.27 2.24 2.46 2.60 2.72 2.92 3.02 2.89 2.68 2.40 2.20 2.04 1.92 1.72 1.65
0.68 1.10 1.35 1.21 1.16 0.92 0.86 0.83 0.75 0.80 0.87 0.93 1.12 1.60 2.21 2.14 1.77 1.64 1.53 1.41 1.19 1.23 1.41 1.54 1.85 1.89 1.95 1.95 1.70 1.72 1.90 1.97 2.01 2.07 2.02 2.09 2.32 2.47 2.65 2.82 2.94 2.73 2.35 2.18 2.10 1.96 1.86 1.76 1.72
0.66 0.81 1.03 0.89 0.95 0.92 0.78 0.65 0.71 0.93 1.19 1.21 1.29 1.74 2.16 2.56 2.27 1.93 1.83 1.71 1.45 1.35 1.38 1.49 1.71 1.77 1.94 2.06 1.97 1.93 2.05 2.06 2.03 2.05 2.07 2.15 2.31 2.51 2.67 2.81 2.99 2.65 2.21 2.06 1.96 1.92 1.80 1.66 1.64
0.47 0.50 0.61 0.74 0.81 0.88 0.69 0.59 0.62 0.82 1.21 1.14 1.19 1.56 2.15 2.18 2.14 2.30 2.25 2.24 1.95 1.75 1.56 1.53 1.71 1.83 1.81 1.93 2.04 2.13 2.16 2.28 2.40 2.40 2.42 2.51 2.59 2.57 2.76 2.80 2.88 2.57 2.25 2.12 2.04 2.01 1.92 1.79 1.68
0.30 0.42 0.43 0.58 0.64 0.65 0.50 0.50 0.54 0.68 0.85 1.03 1.24 1.32 1.61 1.55 1.77 2.22 2.52 2.79 2.69 2.13 1.92 1.74 1.61 1.69 1.76 1.85 2.13 2.55 2.60 2.57 2.65 2.78 2.78 2.78 3.00 3.03 3.22 3.02 2.95 2.66 2.48 2.47 2.38 2.31 2.19 2.02 1.83
0.23 0.34 0.28 0.29 0.33 0.35 0.34 0.39 0.42 0.73 1.16 1.56 1.72 1.61 1.58 1.63 2.03 2.36 2.44 2.56 2.73 2.31 1.97 1.90 1.79 1.70 1.67 1.66 2.11 2.73 2.60 2.51 2.60 2.80 2.74 2.96 3.49 3.80 3.42 3.54 3.51 3.28 3.16 3.08 3.08 3.05 2.63 2.15 2.08
0.12 0.16 0.18 0.21 0.23 0.23 0.28 0.34 0.39 0.68 1.27 1.65 1.80 1.81 1.83 1.84 2.25 2.61 2.77 2.60 2.62 2.46 2.10 2.00 1.91 1.93 1.97 2.10 2.12 2.45 2.69 2.81 2.86 2.90 2.95 3.28 3.48 3.74 3.87 3.90 3.99 4.04 3.71 3.41 3.61 3.45 2.71 2.69 3.06
0.06 0.08 0.12 0.17 0.20 0.24 0.25 0.29 0.49 0.69 1.07 1.40 1.46 1.85 2.07 2.05 2.42 2.68 2.83 2.97 2.83 2.69 2.37 2.14 2.02 2.09 2.24 2.21 2.27 2.38 2.61 2.77 2.96 3.14 3.10 3.46 4.03 4.17 4.29 4.26 4.13 4.30 4.10 4.16 4.06 4.07 3.53 3.48 3.17
0.06 0.08 0.10 0.12 0.18 0.22 0.26 0.31 0.37 0.70 0.88 1.12 1.36 1.74 1.98 2.04 2.43 2.77 3.06 3.16 3.11 2.82 2.54 2.47 2.19 2.18 2.28 2.50 2.70 2.50 2.95 3.08 3.18 3.45 3.58 3.72 4.08 4.20 4.35 4.39 4.42 3.99 3.98 4.17 4.49 4.24 4.40 4.34 3.83
0.05 0.06 0.09 0.12 0.15 0.20 0.35 0.46 0.47 0.86 0.92 1.06 1.34 1.77 1.88 1.94 2.20 2.24 2.61 2.97 3.07 2.79 2.65 2.63 2.44 2.50 2.61 2.73 2.92 3.03 3.31 3.60 3.56 3.68 3.80 3.91 4.17 4.53 4.61 4.60 4.55 4.07 3.90 4.17 4.47 4.37 4.89 4.79 4.54
0.06 0.12 0.18 0.19 0.22 0.30 0.41 0.70 0.75 0.97 1.05 1.27 1.32 1.52 1.70 1.74 1.92 2.14 2.42 2.76 2.84 2.60 2.71 2.89 2.95 3.20 3.32 3.33 3.34 3.34 3.56 3.72 3.94 4.35 4.46 4.60 4.57 4.77 4.60 4.58 4.39 4.23 4.13 4.27 4.40 4.53 4.91 4.58 4.49
0.11 0.23 0.35 0.37 0.33 0.37 0.60 1.22 1.09 1.15 1.14 1.21 1.21 1.38 1.48 1.59 1.84 2.14 2.30 2.59 2.78 2.67 2.75 2.98 3.08 3.49 3.69 3.79 3.93 3.87 3.91 4.00 4.36 4.65 4.95 4.94 4.79 4.65 4.81 4.54 4.27 4.34 4.26 4.48 4.87 4.89 4.93 5.01 4.89
0.20 0.28 0.40 0.45 0.32 0.32 0.55 1.00 0.95 1.02 1.24 1.16 1.15 1.25 1.28 1.39 1.56 1.78 2.06 2.41 2.74 2.99 3.26 3.62 3.75 3.68 3.78 4.01 4.23 4.04 4.15 4.21 4.25 4.43 4.81 4.76 4.41 4.29 4.83 4.75 4.70 4.57 4.78 4.75 4.41 5.07 5.22 5.17 5.09
0.20 0.25 0.34 0.41 0.37 0.32 0.48 0.70 0.85 0.96 1.08 1.19 1.19 1.28 1.37 1.53 1.78 1.99 2.35 2.58 2.86 3.37 3.77 4.01 4.05 4.29 4.59 4.81 4.75 4.56 4.33 4.26 4.15 4.26 4.50 4.42 4.38 4.27 4.71 4.64 4.64 4.78 5.22 5.33 5.16 5.45 5.29 5.08 5.11
0.18 0.26 0.32 0.34 0.38 0.44 0.54 0.61 0.89 1.13 1.25 1.41 1.57 1.79 1.97 2.17 2.24 2.45 2.86 3.14 3.33 3.47 3.72 3.99 4.38 4.78 4.93 4.76 4.71 4.75 4.66 4.53 4.20 4.08 4.24 4.30 4.04 4.06 4.55 4.39 4.92 4.88 5.07 5.21 5.09 5.31 5.15 4.90 4.97
0.17 0.25 0.34 0.39 0.41 0.44 0.63 0.74 0.94 1.38 1.56 1.53 1.57 1.56 1.61 2.05 2.28 2.54 2.89 3.07 3.04 3.22 3.49 3.88 4.35 4.70 4.63 4.77 5.03 5.06 4.99 4.49 4.25 4.17 4.25 4.10 3.83 3.72 3.88 4.55 4.60 4.70 4.93 4.98 4.95 4.99 4.71 4.40 4.80
0.17 0.21 0.29 0.36 0.51 0.50 0.64 1.11 1.24 1.51 1.65 1.51 1.45 1.46 1.42 1.61 1.95 2.13 2.35 2.56 2.77 3.18 3.61 3.95 4.29 4.43 4.47 4.74 4.91 4.68 4.57 4.21 4.20 4.25 4.17 3.95 3.79 3.72 3.88 4.23 4.35 4.48 4.40 4.65 4.88 4.69 4.60 4.50 4.59
0.19 0.18 0.20 0.29 0.51 0.66 0.74 1.46 1.69 1.86 1.75 1.44 1.45 1.50 1.60 1.72 1.80 1.94 2.02 2.35 2.73 3.15 3.73 4.17 4.19 4.28 4.18 4.38 4.55 4.43 4.14 3.98 3.93 3.95 3.74 3.63 3.51 3.45 3.60 3.85 4.09 4.25 4.17 4.39 4.22 4.35 4.54 4.64 4.48
0.15 0.15 0.17 0.27 0.41 0.66 0.80 1.25 1.73 1.81 1.75 1.38 1.27 1.47 1.69 1.67 1.71 1.95 1.92 2.14 2.43 2.85 3.27 3.71 4.07 4.16 4.00 4.00 4.14 4.33 4.17 3.92 3.72 3.61 3.54 3.49 3.48 3.31 3.32 3.55 3.79 3.91 3.82 3.86 4.08 4.47 4.39 4.36 4.31
0.13 0.17 0.27 0.40 0.63 1.05 0.83 0.95 1.41 1.69 1.58 1.29 1.28 1.40 1.57 1.73 1.71 1.86 2.15 2.23 2.39 2.67 3.06 3.33 3.55 3.55 3.55 3.56 3.64 3.79 3.88 3.87 3.65 3.45 3.47 3.44 3.33 3.22 3.18 3.29 3.63 3.70 3.63 3.63 3.82 3.96 4.01 4.07 4.22
0.15 0.30 0.76 1.19 1.46 1.25 0.85 0.93 1.33 1.30 1.10 1.02 1.10 1.35 1.60 1.87 1.86 1.89 2.09 2.23 2.33 2.44 2.64 2.82 2.91 2.97 2.98 3.02 3.03 3.05 3.20 3.30 3.19 3.12 3.21 3.25 3.17 3.10 3.11 3.10 3.27 3.22 3.22 3.35 3.65 3.71 3.65 3.70 3.85
0.19 0.33 0.80 1.10 1.21 1.12 1.03 1.24 1.33 1.07 0.93 0.94 1.03 1.21 1.50 1.67 1.69 1.78 1.87 1.83 1.85 1.91 2.05 2.20 2.30 2.36 2.33 2.43 2.56 2.60 2.83 2.89 2.93 3.06 2.92 2.98 2.97 2.97 2.93 2.83 2.80 2.76 2.85 2.97 3.42 3.50 3.43 3.54 3.55
0.26 0.36 0.39 0.62 0.76 1.15 1.37 1.47 1.35 1.03 1.17 1.15 1.24 1.29 1.29 1.33 1.37 1.39 1.42 1.49 1.61 1.65 1.73 1.84 1.95 1.99 1.95 2.03 2.21 2.27 2.35 2.52 2.68 2.80 2.67 2.53 2.62 2.53 2.69 2.63 2.50 2.47 2.65 2.85 3.04 3.11 3.12 3.29 3.26
0.28 0.42 0.55 0.82 1.13 1.33 1.48 1.75 1.92 1.69 1.63 1.52 1.63 1.76 1.46 1.18 1.20 1.23 1.22 1.27 1.31 1.36 1.51 1.67 1.76 1.95 2.00 2.03 2.12 2.02 2.13 2.25 2.42 2.50 2.35 2.36 2.51 2.53 2.52 2.51 2.41 2.38 2.40 2.51 2.78 2.79 2.90 2.96 3.00
0.38 0.48 0.58 0.75 0.89 1.22 1.64 1.86 1.58 1.77 1.82 1.73 1.59 1.57 1.42 1.08 0.99 1.08 1.02 1.05 1.13 1.21 1.35 1.52 1.78 1.99 1.99 1.87 1.96 2.02 2.02 2.15 2.22 2.24 2.16 2.26 2.40 2.59 2.56 2.54 2.54 2.42 2.35 2.45 2.58 2.44 2.66 2.68 2.73
0.34 0.50 0.60 0.81 0.92 1.03 1.32 1.61 1.20 1.39 1.38 1.25 1.28 1.13 1.05 0.98 0.80 0.90 0.95 0.91 0.97 1.04 1.17 1.37 1.58 1.77 1.82 1.77 1.81 1.97 2.07 2.08 2.08 2.06 2.07 2.09 2.11 2.20 2.22 2.19 2.21 2.25 2.43 2.57 2.50 2.45 2.49 2.55 2.48

GEFSSGP_prec_meanprecacc_348.txt.gz
Total_Precipitation_Accumulation
0.21 0.49 0.91 1.46 2.25 2.74 2.77 2.14 1.57 1.33 1.11 1.00 0.82 0.74 0.86 1.23 1.73 2.80 2.95 2.54 1.91 1.93 2.12 2.08 2.13 1.92 1.86 1.87 1.83 1.83 1.87 1.95 1.88 2.02 2.42 2.63 2.83 3.17 3.39 3.66 3.94 4.23 4.15 3.60 3.19 2.78 2.59 2.56 2.44
0.38 0.67 1.15 1.81 2.56 3.09 2.84 1.91 1.43 1.19 0.89 0.79 0.74 0.72 0.87 1.10 1.25 1.79 2.33 2.09 1.59 1.60 1.65 1.62 1.85 1.87 1.85 1.78 1.61 1.60 1.70 1.80 1.91 2.07 2.37 2.68 2.93 3.26 3.38 3.55 3.75 3.87 3.61 3.26 2.76 2.39 2.33 2.24 2.08
0.62 0.91 1.27 1.81 2.12 2.59 2.31 1.66 1.15 0.90 0.76 0.79 0.96 0.86 1.11 1.53 1.60 1.95 1.94 1.56 1.40 1.42 1.43 1.68 1.78 1.76 1.79 1.60 1.54 1.59 1.69 1.76 1.91 2.05 2.35 2.68 3.03 3.21 3.30 3.29 3.46 3.32 3.09 2.88 2.61 2.36 2.19 2.00 1.86
0.71 1.08 1.32 1.53 1.54 1.41 1.45 1.42 1.00 0.97 0.94 0.80 0.93 1.25 1.44 1.61 1.64 1.87 1.76 1.43 1.17 1.27 1.40 1.66 1.74 1.73 1.86 1.67 1.53 1.65 1.73 1.85 1.96 2.22 2.45 2.51 2.84 2.98 3.03 3.10 3.29 3.14 2.95 2.74 2.48 2.20 2.05 1.83 1.67
0.66 1.09 1.39 1.37 1.34 1.15 1.06 1.04 0.84 0.90 0.94 0.88 0.95 1.49 1.94 1.95 1.57 1.53 1.50 1.38 1.14 1.38 1.60 1.70 1.82 1.80 1.92 1.86 1.58 1.69 1.91 2.04 2.03 2.24 2.36 2.33 2.56 2.70 2.80 2.99 3.11 2.97 2.74 2.48 2.28 2.10 2.00 1.80 1.73
0.74 1.15 1.38 1.23 1.19 0.93 0.86 0.84 0.76 0.81 0.88 0.95 1.14 1.62 2.24 2.19 1.80 1.66 1.59 1.50 1.29 1.35 1.56 1.76 2.07 2.04 2.10 2.04 1.78 1.81 1.98 2.05 2.12 2.21 2.12 2.17 2.41 2.56 2.72 2.90 3.04 2.81 2.43 2.26 2.18 2.03 1.95 1.85 1.79
0.75 0.89 1.06 0.91 0.96 0.92 0.79 0.66 0.71 0.94 1.21 1.22 1.30 1.75 2.19 2.59 2.29 1.95 1.86 1.76 1.52 1.45 1.50 1.64 1.88 1.97 2.12 2.19 2.08 2.05 2.18 2.18 2.14 2.17 2.16 2.23 2.39 2.60 2.77 2.90 3.11 2.73 2.29 2.15 2.05 2.00 1.89 1.77 1.73
0.57 0.58 0.64 0.76 0.82 0.89 0.69 0.60 0.62 0.83 1.24 1.15 1.19 1.57 2.17 2.20 2.16 2.31 2.26 2.27 1.99 1.80 1.64 1.62 1.81 1.99 1.99 2.08 2.19 2.28 2.29 2.40 2.50 2.50 2.51 2.60 2.68 2.65 2.85 2.89 2.96 2.66 2.33 2.22 2.15 2.18 2.10 1.97 1.83
0.34 0.45 0.45 0.59 0.65 0.66 0.51 0.51 0.55 0.69 0.87 1.03 1.25 1.33 1.62 1.56 1.78 2.23 2.53 2.81 2.72 2.16 1.97 1.80 1.69 1.81 1.89 2.00 2.30 2.69 2.72 2.67 2.74 2.87 2.87 2.88 3.10 3.11 3.29 3.07 3.01 2.75 2.57 2.59 2.50 2.52 2.58 2.34 2.10
0.25 0.35 0.29 0.30 0.34 0.36 0.36 0.41 0.44 0.74 1.18 1.57 1.73 1.61 1.58 1.64 2.03 2.36 2.45 2.57 2.75 2.35 2.02 1.96 1.87 1.80 1.77 1.77 2.24 2.85 2.69 2.58 2.66 2.85 2.78 3.00 3.54 3.87 3.49 3.61 3.59 3.39 3.30 3.22 3.20 3.18 2.88 2.47 2.40
0.13 0.16 0.19 0.22 0.24 0.25 0.29 0.35 0.41 0.69 1.28 1.66 1.81 1.82 1.84 1.84 2.25 2.62 2.77 2.61 2.63 2.48 2.13 2.05 1.99 2.03 2.08 2.21 2.23 2.53 2.74 2.85 2.90 2.93 2.97 3.31 3.55 3.83 3.94 3.99 4.11 4.16 3.86 3.54 3.70 3.53 2.82 2.87 3.27
0.08 0.09 0.13 0.17 0.21 0.25 0.26 0.30 0.50 0.69 1.08 1.40 1.46 1.85 2.08 2.05 2.43 2.68 2.84 2.98 2.83 2.69 2.37 2.15 2.05 2.14 2.32 2.29 2.33 2.41 2.64 2.81 2.99 3.17 3.12 3.52 4.12 4.25 4.35 4.33 4.22 4.42 4.24 4.25 4.12 4.11 3.58 3.58 3.31
0.08 0.09 0.10 0.13 0.18 0.22 0.26 0.31 0.38 0.71 0.89 1.13 1.36 1.75 1.99 2.05 2.44 2.78 3.06 3.17 3.12 2.83 2.55 2.47 2.20 2.20 2.31 2.56 2.75 2.53 2.98 3.11 3.21 3.49 3.64 3.81 4.20 4.29 4.42 4.45 4.49 4.05 4.04 4.22 4.53 4.27 4.43 4.38 3.90
0.06 0.08 0.10 0.12 0.16 0.21 0.35 0.46 0.47 0.87 0.92 1.07 1.34 1.78 1.89 1.94 2.20 2.24 2.62 2.98 3.08 2.81 2.67 2.64 2.45 2.51 2.63 2.77 2.97 3.08 3.35 3.65 3.62 3.75 3.88 4.01 4.25 4.59 4.67 4.65 4.59 4.10 3.94 4.22 4.51 4.40 4.92 4.81 4.57
0.07 0.13 0.18 0.20 0.23 0.30 0.41 0.70 0.75 0.98 1.05 1.27 1.33 1.53 1.71 1.75 1.93 2.15 2.43 2.77 2.85 2.62 2.73 2.91 2.96 3.22 3.34 3.37 3.39 3.39 3.60 3.76 3.99 4.40 4.52 4.65 4.63 4.83 4.63 4.61 4.43 4.26 4.16 4.31 4.44 4.56 4.95 4.62 4.52
0.12 0.23 0.36 0.37 0.33 0.37 0.61 1.23 1.10 1.16 1.14 1.21 1.21 1.38 1.49 1.60 1.84 2.14 2.30 2.60 2.79 2.68 2.76 2.99 3.09 3.50 3.70 3.81 3.96 3.90 3.95 4.05 4.41 4.69 4.98 4.97 4.83 4.70 4.85 4.58 4.31 4.37 4.29 4.53 4.91 4.94 5.00 5.07 4.95
0.20 0.29 0.40 0.45 0.32 0.33 0.56 1.01 0.95 1.03 1.25 1.16 1.15 1.25 1.29 1.40 1.57 1.79 2.06 2.41 2.74 3.00 3.27 3.63 3.76 3.69 3.79 4.02 4.25 4.06 4.17 4.25 4.29 4.46 4.85 4.78 4.44 4.33 4.89 4.81 4.75 4.61 4.82 4.80 4.46 5.14 5.30 5.24 5.14
0.20 0.25 0.35 0.42 0.37 0.33 0.48 0.70 0.85 0.96 1.08 1.19 1.19 1.28 1.37 1.54 1.78 2.00 2.35 2.59 2.86 3.38 3.77 4.02 4.06 4.30 4.60 4.82 4.77 4.58 4.36 4.29 4.18 4.28 4.53 4.46 4.42 4.32 4.77 4.71 4.71 4.84 5.28 5.40 5.23 5.52 5.36 5.12 5.15
0.18 0.26 0.32 0.34 0.39 0.44 0.54 0.61 0.89 1.13 1.25 1.41 1.57 1.79 1.97 2.17 2.24 2.45 2.87 3.14 3.33 3.48 3.72 3.99 4.39 4.79 4.94 4.77 4.73 4.77 4.69 4.55 4.23 4.10 4.25 4.32 4.08 4.12 4.61 4.47 5.02 4.97 5.14 5.27 5.15 5.35 5.18 4.93 5.01
0.17 0.25 0.34 0.39 0.41 0.45 0.63 0.74 0.94 1.39 1.56 1.53 1.57 1.56 1.61 2.05 2.28 2.54 2.89 3.08 3.04 3.22 3.50 3.88 4.35 4.71 4.64 4.79 5.05 5.09 5.01 4.51 4.27 4.19 4.26 4.11 3.85 3.77 3.95 4.62 4.68 4.78 5.01 5.04 5.00 5.05 4.76 4.45 4.84
0.17 0.21 0.29 0.37 0.51 0.50 0.65 1.11 1.24 1.51 1.65 1.51 1.45 1.46 1.42 1.62 1.95 2.13 2.35 2.57 2.77 3.18 3.61 3.96 4.29 4.44 4.49 4.75 4.92 4.69 4.59 4.22 4.21 4.27 4.19 3.96 3.80 3.74 3.93 4.29 4.41 4.56 4.49 4.73 4.95 4.76 4.69 4.59 4.66
0.19 0.18 0.20 0.30 0.51 0.67 0.75 1.46 1.70 1.86 1.76 1.44 1.45 1.50 1.60 1.72 1.81 1.95 2.03 2.36 2.74 3.16 3.75 4.18 4.21 4.29 4.19 4.38 4.56 4.43 4.15 3.99 3.95 3.98 3.76 3.66 3.54 3.47 3.63 3.88 4.13 4.31 4.25 4.48 4.30 4.42 4.61 4.71 4.55
0.15 0.15 0.18 0.28 0.42 0.66 0.80 1.25 1.73 1.81 1.75 1.38 1.28 1.47 1.70 1.68 1.74 1.97 1.94 2.16 2.45 2.87 3.29 3.72 4.08 4.17 4.02 4.01 4.14 4.33 4.17 3.93 3.76 3.65 3.59 3.53 3.52 3.34 3.36 3.58 3.82 3.94 3.86 3.91 4.14 4.53 4.46 4.42 4.36
0.13 0.17 0.27 0.40 0.63 1.06 0.83 0.95 1.42 1.69 1.58 1.29 1.28 1.40 1.57 1.74 1.74 1.89 2.17 2.25 2.40 2.68 3.07 3.35 3.57 3.58 3.57 3.57 3.66 3.81 3.90 3.89 3.69 3.50 3.52 3.48 3.38 3.28 3.25 3.36 3.71 3.78 3.69 3.66 3.84 4.00 4.05 4.11 4.27
0.15 0.30 0.76 1.19 1.46 1.25 0.85 0.93 1.33 1.31 1.10 1.02 1.10 1.35 1.60 1.87 1.87 1.90 2.10 2.24 2.33 2.44 2.65 2.84 2.93 3.00 3.00 3.05 3.05 3.07 3.23 3.33 3.24 3.18 3.28 3.31 3.24 3.17 3.21 3.20 3.35 3.29 3.29 3.40 3.70 3.74 3.68 3.73 3.88
0.19 0.33 0.80 1.10 1.21 1.12 1.03 1.24 1.33 1.08 0.94 0.95 1.03 1.22 1.51 1.67 1.70 1.79 1.88 1.84 1.86 1.91 2.06 2.22 2.32 2.37 2.35 2.44 2.58 2.62 2.84 2.91 2.95 3.10 2.98 3.06 3.04 3.05 3.01 2.90 2.86 2.82 2.92 3.03 3.47 3.53 3.46 3.58 3.59
0.27 0.36 0.39 0.62 0.76 1.16 1.37 1.47 1.36 1.04 1.18 1.15 1.25 1.30 1.30 1.34 1.38 1.39 1.43 1.50 1.62 1.66 1.73 1.85 1.95 2.00 1.95 2.04 2.22 2.28 2.36 2.54 2.70 2.82 2.70 2.57 2.66 2.59 2.77 2.70 2.56 2.53 2.70 2.89 3.08 3.13 3.14 3.32 3.29
0.28 0.42 0.55 0.82 1.13 1.34 1.49 1.75 1.93 1.70 1.64 1.53 1.65 1.78 1.47 1.19 1.20 1.24 1.22 1.28 1.32 1.37 1.52 1.68 1.77 1.96 2.01 2.04 2.14 2.04 2.15 2.28 2.46 2.52 2.37 2.38 2.54 2.56 2.57 2.57 2.47 2.43 2.45 2.55 2.82 2.82 2.93 2.99 3.03
0.38 0.48 0.58 0.75 0.89 1.22 1.64 1.86 1.59 1.79 1.83 1.74 1.60 1.59 1.43 1.08 0.99 1.08 1.02 1.05 1.14 1.22 1.36 1.53 1.79 2.01 2.01 1.89 1.99 2.05 2.04 2.19 2.27 2.26 2.17 2.29 2.43 2.63 2.61 2.60 2.60 2.48 2.39 2.49 2.62 2.47 2.69 2.71 2.76
0.34 0.50 0.60 0.81 0.92 1.03 1.33 1.62 1.21 1.41 1.40 1.27 1.30 1.14 1.06 0.99 0.81 0.91 0.96 0.92 0.99 1.05 1.18 1.38 1.60 1.80 1.85 1.80 1.84 2.01 2.14 2.17 2.14 2.09 2.10 2.13 2.16 2.25 2.27 2.25 2.26 2.30 2.47 2.61 2.53 2.48 2.52 2.57 2.49

GEFSSGP_prec_meanprecacc_354.txt.gz
Total_Precipitation_Accumulation
0.22 0.51 0.92 1.47 2.27 2.77 2.79 2.15 1.59 1.34 1.13 1.02 0.83 0.76 0.89 1.27 1.80 2.90 3.05 2.60 1.97 1.99 2.20 2.16 2.22 1.99 1.93 1.93 1.88 1.88 1.94 2.04 2.00 2.14 2.55 2.77 2.95 3.27 3.51 3.79 4.08 4.34 4.24 3.68 3.28 2.86 2.65 2.61 2.49
0.39 0.68 1.16 1.83 2.59 3.11 2.86 1.92 1.44 1.21 0.90 0.79 0.75 0.74 0.90 1.15 1.31 1.85 2.38 2.14 1.66 1.66 1.71 1.70 1.92 1.93 1.90 1.82 1.66 1.66 1.77 1.90 2.04 2.22 2.55 2.86 3.07 3.38 3.50 3.68 3.89 3.98 3.73 3.37 2.86 2.48 2.41 2.31 2.13
0.63 0.93 1.29 1.83 2.14 2.61 2.33 1.67 1.16 0.91 0.76 0.80 0.98 0.90 1.18 1.64 1.69 2.04 2.00 1.61 1.49 1.51 1.53 1.79 1.85 1.82 1.85 1.65 1.60 1.66 1.77 1.87 2.04 2.17 2.47 2.79 3.13 3.33 3.43 3.43 3.59 3.43 3.22 3.03 2.74 2.45 2.26 2.06 1.92
0.71 1.09 1.33 1.55 1.55 1.41 1.45 1.43 1.00 0.97 0.94 0.81 0.95 1.28 1.50 1.71 1.78 2.02 1.85 1.50 1.29 1.40 1.55 1.80 1.83 1.79 1.91 1.73 1.60 1.73 1.82 1.95 2.07 2.32 2.54 2.60 2.92 3.09 3.16 3.22 3.40 3.26 3.08 2.90 2.64 2.32 2.12 1.89 1.74
0.67 1.11 1.41 1.38 1.35 1.16 1.06 1.04 0.84 0.90 0.94 0.88 0.96 1.51 1.99 2.01 1.66 1.64 1.60 1.48 1.25 1.49 1.73 1.83 1.92 1.88 1.99 1.94 1.65 1.76 1.98 2.13 2.14 2.34 2.45 2.41 2.67 2.82 2.92 3.11 3.23 3.08 2.85 2.62 2.43 2.23 2.08 1.85 1.78
0.76 1.17 1.40 1.25 1.20 0.93 0.86 0.84 0.76 0.82 0.89 0.95 1.14 1.63 2.29 2.26 1.87 1.77 1.68 1.58 1.37 1.43 1.69 1.98 2.23 2.15 2.19 2.12 1.85 1.87 2.05 2.14 2.22 2.31 2.20 2.24 2.49 2.66 2.83 3.03 3.18 2.94 2.54 2.38 2.31 2.17 2.06 1.91 1.83
0.77 0.90 1.07 0.93 0.97 0.93 0.79 0.66 0.71 0.94 1.21 1.22 1.30 1.77 2.23 2.65 2.38 2.06 1.95 1.83 1.60 1.52 1.60 1.79 2.01 2.07 2.20 2.25 2.14 2.12 2.28 2.29 2.25 2.27 2.24 2.31 2.48 2.71 2.88 3.04 3.27 2.85 2.38 2.25 2.17 2.13 2.02 1.86 1.79
0.58 0.60 0.66 0.77 0.83 0.89 0.69 0.60 0.62 0.83 1.24 1.15 1.20 1.59 2.20 2.24 2.22 2.40 2.35 2.34 2.07 1.89 1.72 1.69 1.88 2.07 2.07 2.16 2.25 2.35 2.39 2.52 2.62 2.59 2.58 2.67 2.76 2.74 2.96 3.02 3.10 2.76 2.42 2.32 2.25 2.30 2.22 2.06 1.92
0.35 0.46 0.47 0.60 0.66 0.66 0.51 0.52 0.55 0.69 0.87 1.04 1.25 1.34 1.64 1.58 1.80 2.27 2.58 2.86 2.77 2.21 2.02 1.85 1.74 1.86 1.95 2.08 2.40 2.80 2.82 2.79 2.86 2.98 2.95 2.97 3.19 3.22 3.41 3.19 3.12 2.86 2.70 2.70 2.60 2.63 2.70 2.46 2.21
0.27 0.36 0.30 0.31 0.35 0.37 0.36 0.41 0.44 0.74 1.18 1.58 1.74 1.62 1.59 1.65 2.04 2.38 2.48 2.62 2.80 2.40 2.08 2.02 1.93 1.89 1.86 1.87 2.34 2.96 2.78 2.70 2.78 2.96 2.88 3.11 3.65 3.99 3.59 3.72 3.72 3.54 3.44 3.35 3.31 3.30 3.03 2.68 2.59
0.15 0.19 0.20 0.23 0.25 0.25 0.30 0.36 0.41 0.70 1.28 1.66 1.82 1.83 1.84 1.85 2.26 2.63 2.80 2.63 2.67 2.53 2.19 2.13 2.09 2.16 2.18 2.29 2.31 2.63 2.85 2.98 3.01 3.02 3.07 3.40 3.63 3.93 4.04 4.11 4.26 4.33 4.02 3.71 3.85 3.66 2.98 3.16 3.53
0.10 0.12 0.14 0.18 0.21 0.26 0.27 0.31 0.51 0.70 1.08 1.40 1.47 1.86 2.08 2.06 2.44 2.70 2.86 2.99 2.85 2.72 2.41 2.21 2.13 2.25 2.42 2.36 2.42 2.53 2.78 2.92 3.06 3.23 3.19 3.58 4.18 4.32 4.43 4.44 4.34 4.56 4.42 4.45 4.28 4.28 3.72 3.85 3.59
0.09 0.10 0.10 0.13 0.20 0.23 0.27 0.31 0.38 0.72 0.89 1.13 1.36 1.75 1.99 2.05 2.44 2.80 3.08 3.19 3.13 2.84 2.56 2.50 2.27 2.29 2.42 2.64 2.85 2.66 3.12 3.20 3.26 3.55 3.70 3.87 4.26 4.36 4.49 4.53 4.60 4.20 4.21 4.38 4.66 4.39 4.51 4.60 4.20
0.06 0.08 0.10 0.12 0.16 0.22 0.36 0.46 0.47 0.88 0.93 1.07 1.35 1.78 1.89 1.95 2.21 2.26 2.64 3.00 3.09 2.82 2.67 2.66 2.50 2.57 2.70 2.87 3.06 3.19 3.47 3.72 3.67 3.80 3.95 4.09 4.33 4.65 4.73 4.72 4.69 4.23 4.07 4.35 4.62 4.49 5.00 4.97 4.79
0.07 0.13 0.18 0.20 0.23 0.30 0.42 0.71 0.75 0.98 1.05 1.28 1.33 1.53 1.72 1.76 1.94 2.16 2.45 2.79 2.87 2.63 2.74 2.94 3.02 3.26 3.38 3.44 3.46 3.46 3.68 3.83 4.05 4.48 4.60 4.72 4.69 4.90 4.72 4.70 4.53 4.35 4.24 4.40 4.53 4.65 5.03 4.73 4.65
0.12 0.24 0.36 0.37 0.33 0.37 0.61 1.23 1.10 1.16 1.14 1.22 1.22 1.39 1.49 1.61 1.85 2.15 2.32 2.61 2.80 2.70 2.77 3.03 3.16 3.54 3.72 3.84 4.02 3.96 4.02 4.13 4.51 4.81 5.08 5.05 4.91 4.78 4.94 4.66 4.40 4.44 4.35 4.59 4.99 5.02 5.08 5.16 5.05
0.21 0.29 0.40 0.45 0.32 0.33 0.56 1.01 0.96 1.03 1.25 1.17 1.16 1.25 1.29 1.41 1.58 1.80 2.07 2.43 2.75 3.01 3.29 3.67 3.79 3.71 3.80 4.04 4.29 4.13 4.26 4.34 4.40 4.57 4.94 4.85 4.52 4.40 4.96 4.88 4.85 4.69 4.88 4.86 4.52 5.21 5.38 5.32 5.24
0.20 0.25 0.35 0.42 0.37 0.33 0.48 0.70 0.86 0.96 1.08 1.19 1.19 1.28 1.37 1.54 1.80 2.01 2.37 2.60 2.87 3.39 3.79 4.04 4.07 4.32 4.61 4.84 4.80 4.63 4.42 4.36 4.24 4.34 4.59 4.52 4.48 4.37 4.83 4.78 4.79 4.92 5.35 5.47 5.30 5.60 5.44 5.20 5.24
0.18 0.26 0.32 0.34 0.39 0.45 0.54 0.61 0.89 1.13 1.25 1.41 1.57 1.79 1.97 2.17 2.25 2.47 2.88 3.15 3.34 3.48 3.73 4.00 4.40 4.81 4.96 4.80 4.76 4.80 4.74 4.61 4.29 4.15 4.29 4.37 4.13 4.16 4.67 4.54 5.09 5.04 5.21 5.35 5.24 5.45 5.28 5.01 5.06
0.17 0.25 0.34 0.40 0.41 0.45 0.63 0.74 0.94 1.39 1.56 1.53 1.57 1.56 1.61 2.05 2.28 2.55 2.91 3.09 3.05 3.23 3.50 3.89 4.37 4.73 4.66 4.81 5.08 5.11 5.04 4.54 4.31 4.25 4.32 4.16 3.89 3.82 4.01 4.71 4.76 4.85 5.09 5.12 5.09 5.13 4.84 4.53 4.90
0.17 0.21 0.29 0.37 0.51 0.50 0.65 1.12 1.24 1.51 1.66 1.51 1.45 1.46 1.42 1.62 1.95 2.14 2.37 2.58 2.78 3.19 3.62 3.97 4.31 4.46 4.51 4.77 4.95 4.71 4.60 4.23 4.23 4.31 4.25 4.02 3.86 3.80 4.00 4.41 4.53 4.66 4.57 4.80 5.03 4.84 4.79 4.69 4.76
0.19 0.18 0.20 0.30 0.51 0.67 0.75 1.47 1.70 1.86 1.76 1.44 1.45 1.50 1.60 1.72 1.81 1.96 2.04 2.36 2.75 3.17 3.76 4.20 4.24 4.31 4.20 4.40 4.59 4.47 4.17 4.01 3.98 4.02 3.82 3.73 3.61 3.53 3.67 3.95 4.24 4.45 4.38 4.58 4.39 4.50 4.69 4.81 4.67
0.15 0.15 0.18 0.28 0.42 0.67 0.80 1.26 1.74 1.81 1.75 1.38 1.28 1.47 1.70 1.68 1.74 1.98 1.95 2.17 2.46 2.87 3.30 3.74 4.10 4.19 4.04 4.04 4.18 4.36 4.19 3.95 3.78 3.67 3.62 3.57 3.56 3.39 3.39 3.62 3.87 4.02 4.00 4.07 4.30 4.67 4.58 4.54 4.47
0.13 0.17 0.27 0.40 0.63 1.06 0.83 0.95 1.42 1.69 1.58 1.29 1.28 1.40 1.57 1.75 1.76 1.89 2.18 2.25 2.40 2.69 3.08 3.36 3.58 3.59 3.60 3.60 3.68 3.83 3.92 3.91 3.71 3.54 3.56 3.51 3.41 3.30 3.27 3.39 3.74 3.82 3.75 3.75 3.96 4.12 4.18 4.24 4.38
0.15 0.30 0.76 1.19 1.46 1.26 0.85 0.93 1.34 1.31 1.11 1.02 1.10 1.36 1.63 1.93 1.91 1.91 2.11 2.24 2.34 2.45 2.65 2.85 2.93 3.01 3.03 3.07 3.07 3.09 3.25 3.35 3.26 3.22 3.32 3.35 3.26 3.19 3.23 3.22 3.38 3.33 3.33 3.45 3.75 3.80 3.75 3.80 3.96
0.19 0.33 0.81 1.10 1.22 1.12 1.03 1.24 1.34 1.08 0.94 0.95 1.04 1.23 1.55 1.72 1.72 1.80 1.89 1.84 1.86 1.92 2.06 2.23 2.33 2.39 2.38 2.47 2.60 2.63 2.85 2.93 2.97 3.14 3.04 3.10 3.06 3.07 3.03 2.93 2.89 2.85 2.95 3.06 3.50 3.56 3.49 3.61 3.63
0.27 0.36 0.39 0.62 0.76 1.16 1.37 1.48 1.36 1.04 1.18 1.16 1.26 1.31 1.32 1.37 1.40 1.41 1.44 1.50 1.63 1.66 1.74 1.85 1.96 2.01 1.97 2.05 2.24 2.29 2.37 2.56 2.74 2.90 2.76 2.59 2.68 2.62 2.79 2.73 2.60 2.57 2.74 2.93 3.11 3.16 3.17 3.35 3.32
0.28 0.42 0.55 0.82 1.13 1.34 1.49 1.76 1.93 1.71 1.65 1.54 1.65 1.79 1.49 1.21 1.21 1.25 1.22 1.28 1.32 1.38 1.52 1.68 1.78 1.97 2.02 2.05 2.15 2.05 2.17 2.30 2.49 2.58 2.41 2.42 2.57 2.59 2.61 2.61 2.50 2.47 2.49 2.59 2.85 2.85 2.96 3.03 3.06
0.38 0.48 0.58 0.75 0.89 1.22 1.65 1.88 1.60 1.80 1.84 1.75 1.61 1.60 1.45 1.10 1.00 1.09 1.03 1.06 1.15 1.23 1.37 1.53 1.80 2.02 2.02 1.89 2.00 2.06 2.06 2.21 2.29 2.30 2.21 2.34 2.48 2.67 2.65 2.64 2.63 2.50 2.42 2.52 2.66 2.52 2.73 2.75 2.80
0.34 0.50 0.60 0.81 0.92 1.03 1.33 1.63 1.21 1.41 1.41 1.28 1.30 1.15 1.07 1.00 0.82 0.92 0.97 0.93 0.99 1.06 1.19 1.38 1.61 1.81 1.86 1.80 1.84 2.02 2.16 2.19 2.17 2.12 2.15 2.19 2.22 2.29 2.32 2.29 2.30 2.33 2.50 2.64 2.56 2.51 2.56 2.62 2.53

GEFSSGP_prec_meanprecacc_360.txt.gz
Total_Precipitation_Accumulation
0.22 0.51 0.94 1.52 2.38 2.88 2.85 2.19 1.62 1.37 1.15 1.04 0.85 0.79 0.94 1.33 1.88 3.03 3.19 2.73 2.09 2.15 2.37 2.29 2.32 2.07 2.00 2.00 1.95 1.96 2.03 2.12 2.06 2.22 2.63 2.86 3.01 3.33 3.60 3.88 4.13 4.39 4.30 3.73 3.34 2.92 2.70 2.65 2.53
0.39 0.70 1.21 1.92 2.74 3.19 2.90 1.94 1.47 1.24 0.93 0.82 0.76 0.76 0.93 1.18 1.35 1.92 2.48 2.26 1.76 1.76 1.80 1.76 1.97 1.97 1.95 1.88 1.72 1.74 1.86 1.98 2.12 2.31 2.64 2.94 3.14 3.46 3.60 3.78 3.95 4.04 3.80 3.44 2.93 2.54 2.46 2.36 2.17
0.65 0.95 1.35 1.96 2.24 2.67 2.36 1.69 1.18 0.94 0.79 0.82 0.99 0.92 1.23 1.69 1.74 2.10 2.09 1.71 1.57 1.59 1.61 1.85 1.91 1.86 1.89 1.69 1.66 1.75 1.86 1.96 2.13 2.25 2.55 2.87 3.21 3.41 3.52 3.51 3.67 3.52 3.34 3.15 2.82 2.51 2.31 2.11 1.96
0.73 1.11 1.38 1.63 1.59 1.45 1.47 1.44 1.02 0.99 0.95 0.82 0.97 1.34 1.59 1.80 1.86 2.11 1.96 1.60 1.38 1.49 1.62 1.86 1.90 1.84 1.96 1.78 1.68 1.81 1.91 2.04 2.15 2.40 2.62 2.66 2.99 3.16 3.26 3.34 3.52 3.36 3.19 3.02 2.75 2.38 2.16 1.93 1.79
0.69 1.14 1.51 1.45 1.38 1.16 1.06 1.04 0.85 0.92 0.96 0.90 0.97 1.55 2.06 2.09 1.75 1.74 1.73 1.58 1.34 1.61 1.83 1.90 1.97 1.93 2.06 2.00 1.72 1.84 2.07 2.21 2.21 2.42 2.51 2.47 2.74 2.91 3.03 3.22 3.31 3.15 2.93 2.73 2.56 2.32 2.14 1.90 1.83
0.79 1.21 1.46 1.32 1.25 0.94 0.87 0.84 0.77 0.82 0.90 0.97 1.16 1.68 2.38 2.36 1.97 1.86 1.76 1.65 1.43 1.51 1.81 2.06 2.28 2.20 2.26 2.19 1.93 1.95 2.14 2.22 2.29 2.37 2.23 2.27 2.53 2.71 2.89 3.11 3.26 3.01 2.61 2.46 2.44 2.31 2.17 1.97 1.87
0.84 0.96 1.12 0.97 1.01 0.95 0.79 0.66 0.71 0.94 1.22 1.23 1.32 1.82 2.30 2.73 2.45 2.13 2.03 1.90 1.63 1.59 1.80 1.99 2.08 2.12 2.27 2.32 2.21 2.19 2.34 2.35 2.32 2.33 2.30 2.36 2.53 2.75 2.92 3.10 3.34 2.92 2.46 2.33 2.27 2.27 2.15 1.94 1.84
0.61 0.64 0.71 0.79 0.85 0.92 0.70 0.60 0.62 0.83 1.25 1.16 1.21 1.64 2.28 2.32 2.27 2.44 2.40 2.39 2.12 1.96 1.90 1.87 1.96 2.13 2.14 2.23 2.31 2.41 2.45 2.56 2.68 2.67 2.65 2.75 2.82 2.80 3.02 3.07 3.17 2.84 2.49 2.40 2.34 2.42 2.39 2.19 2.00
0.38 0.50 0.51 0.62 0.70 0.70 0.51 0.52 0.55 0.69 0.88 1.04 1.26 1.37 1.69 1.62 1.83 2.31 2.63 2.92 2.84 2.29 2.14 1.98 1.84 1.96 2.07 2.19 2.48 2.87 2.88 2.83 2.92 3.05 3.02 3.05 3.27 3.32 3.50 3.26 3.20 2.94 2.78 2.80 2.68 2.73 2.85 2.61 2.33
0.30 0.41 0.34 0.32 0.36 0.38 0.37 0.42 0.44 0.75 1.18 1.58 1.74 1.62 1.60 1.66 2.05 2.41 2.53 2.69 2.87 2.48 2.17 2.14 2.06 2.02 1.99 1.98 2.42 3.04 2.85 2.77 2.86 3.05 2.98 3.22 3.77 4.13 3.72 3.83 3.81 3.62 3.53 3.45 3.39 3.39 3.16 2.83 2.72
0.17 0.20 0.21 0.23 0.25 0.26 0.30 0.36 0.41 0.70 1.30 1.67 1.83 1.84 1.84 1.86 2.27 2.65 2.83 2.69 2.74 2.62 2.30 2.25 2.21 2.26 2.26 2.38 2.38 2.70 2.93 3.08 3.10 3.12 3.18 3.53 3.76 4.08 4.20 4.25 4.40 4.46 4.15 3.85 3.97 3.79 3.13 3.29 3.64
0.12 0.13 0.14 0.18 0.21 0.26 0.28 0.31 0.51 0.71 1.10 1.41 1.47 1.86 2.08 2.06 2.45 2.71 2.88 3.02 2.89 2.78 2.51 2.33 2.25 2.34 2.50 2.43 2.49 2.59 2.85 3.02 3.16 3.33 3.30 3.72 4.34 4.48 4.58 4.58 4.48 4.71 4.58 4.61 4.41 4.40 3.86 3.95 3.67
0.11 0.12 0.11 0.13 0.20 0.24 0.27 0.32 0.39 0.72 0.89 1.13 1.36 1.75 1.99 2.05 2.45 2.80 3.09 3.20 3.14 2.87 2.60 2.57 2.34 2.35 2.48 2.72 2.95 2.75 3.22 3.30 3.35 3.65 3.83 4.01 4.40 4.52 4.64 4.66 4.72 4.32 4.35 4.54 4.79 4.53 4.64 4.73 4.33
0.10 0.13 0.12 0.12 0.16 0.22 0.36 0.47 0.48 0.88 0.93 1.07 1.35 1.79 1.90 1.95 2.21 2.26 2.64 3.00 3.09 2.83 2.69 2.70 2.55 2.61 2.76 2.95 3.19 3.36 3.63 3.88 3.78 3.88 4.03 4.18 4.44 4.78 4.85 4.82 4.79 4.34 4.17 4.46 4.76 4.66 5.16 5.14 4.96
0.08 0.14 0.20 0.20 0.23 0.31 0.43 0.72 0.76 0.98 1.05 1.28 1.33 1.53 1.72 1.77 1.95 2.17 2.45 2.80 2.87 2.65 2.75 2.95 3.04 3.29 3.43 3.51 3.56 3.58 3.83 4.03 4.19 4.57 4.68 4.80 4.77 4.99 4.81 4.80 4.62 4.44 4.33 4.49 4.66 4.80 5.18 4.91 4.85
0.12 0.24 0.37 0.38 0.33 0.37 0.62 1.26 1.11 1.16 1.14 1.22 1.22 1.39 1.50 1.62 1.87 2.16 2.32 2.62 2.82 2.71 2.79 3.03 3.17 3.55 3.75 3.91 4.10 4.05 4.12 4.30 4.71 4.93 5.18 5.12 4.98 4.85 5.02 4.77 4.47 4.51 4.42 4.69 5.11 5.15 5.20 5.31 5.25
0.21 0.30 0.41 0.46 0.32 0.33 0.57 1.06 0.97 1.03 1.25 1.17 1.17 1.26 1.30 1.42 1.59 1.80 2.08 2.43 2.76 3.02 3.30 3.68 3.81 3.72 3.83 4.10 4.38 4.21 4.35 4.46 4.57 4.73 5.07 4.94 4.59 4.47 5.06 4.98 4.94 4.78 4.97 4.95 4.61 5.31 5.49 5.47 5.43
0.21 0.27 0.36 0.42 0.37 0.33 0.49 0.73 0.87 0.97 1.08 1.20 1.19 1.29 1.38 1.54 1.80 2.01 2.37 2.60 2.87 3.39 3.79 4.05 4.08 4.32 4.63 4.87 4.87 4.74 4.55 4.49 4.37 4.48 4.73 4.61 4.56 4.45 4.94 4.89 4.88 5.00 5.44 5.56 5.40 5.69 5.55 5.34 5.38
0.19 0.28 0.33 0.34 0.39 0.45 0.55 0.63 0.90 1.14 1.25 1.41 1.57 1.80 1.98 2.18 2.27 2.48 2.88 3.15 3.34 3.49 3.74 4.02 4.42 4.83 4.98 4.83 4.82 4.89 4.86 4.75 4.42 4.27 4.41 4.44 4.20 4.24 4.78 4.66 5.20 5.14 5.30 5.44 5.33 5.56 5.38 5.11 5.15
0.18 0.26 0.34 0.40 0.41 0.45 0.64 0.75 0.95 1.39 1.56 1.53 1.57 1.57 1.62 2.06 2.29 2.55 2.91 3.09 3.06 3.23 3.52 3.91 4.40 4.76 4.68 4.86 5.13 5.17 5.12 4.63 4.40 4.36 4.43 4.24 3.96 3.89 4.09 4.81 4.86 4.96 5.19 5.22 5.19 5.24 4.94 4.62 4.98
0.18 0.21 0.29 0.37 0.51 0.50 0.65 1.13 1.25 1.52 1.66 1.51 1.45 1.47 1.43 1.62 1.95 2.15 2.38 2.58 2.79 3.20 3.64 4.00 4.35 4.49 4.54 4.82 4.98 4.74 4.66 4.30 4.29 4.40 4.35 4.10 3.91 3.85 4.06 4.47 4.60 4.75 4.65 4.90 5.11 4.93 4.88 4.79 4.85
0.19 0.18 0.20 0.30 0.52 0.68 0.76 1.48 1.71 1.87 1.76 1.44 1.45 1.50 1.61 1.72 1.81 1.96 2.04 2.37 2.75 3.18 3.79 4.23 4.28 4.35 4.25 4.44 4.63 4.51 4.22 4.07 4.05 4.10 3.89 3.79 3.67 3.57 3.70 3.99 4.28 4.51 4.45 4.66 4.45 4.55 4.75 4.89 4.75
0.16 0.16 0.18 0.28 0.42 0.67 0.81 1.28 1.78 1.82 1.75 1.38 1.28 1.48 1.71 1.68 1.74 1.98 1.95 2.17 2.46 2.88 3.31 3.75 4.13 4.22 4.07 4.08 4.22 4.42 4.26 4.02 3.85 3.75 3.70 3.64 3.63 3.44 3.42 3.65 3.91 4.07 4.05 4.13 4.35 4.72 4.64 4.60 4.54
0.13 0.17 0.27 0.40 0.64 1.07 0.84 0.97 1.44 1.70 1.59 1.30 1.28 1.40 1.57 1.75 1.76 1.89 2.18 2.26 2.41 2.69 3.08 3.37 3.60 3.62 3.63 3.64 3.72 3.88 3.99 3.98 3.78 3.62 3.64 3.58 3.47 3.35 3.30 3.42 3.77 3.86 3.80 3.81 4.00 4.17 4.23 4.30 4.45
0.15 0.31 0.77 1.20 1.47 1.27 0.86 0.94 1.35 1.31 1.11 1.03 1.11 1.37 1.65 1.93 1.91 1.91 2.11 2.25 2.35 2.46 2.66 2.87 2.95 3.04 3.07 3.12 3.12 3.14 3.31 3.40 3.32 3.28 3.38 3.41 3.31 3.24 3.27 3.25 3.41 3.36 3.37 3.49 3.81 3.87 3.81 3.86 4.03
0.19 0.34 0.82 1.12 1.23 1.14 1.05 1.25 1.35 1.09 0.94 0.95 1.04 1.25 1.60 1.73 1.73 1.81 1.90 1.86 1.88 1.93 2.07 2.25 2.35 2.41 2.41 2.51 2.64 2.68 2.91 2.99 3.04 3.21 3.09 3.14 3.09 3.10 3.06 2.96 2.92 2.89 2.99 3.10 3.56 3.62 3.55 3.68 3.69
0.27 0.36 0.39 0.63 0.77 1.18 1.39 1.49 1.37 1.04 1.18 1.16 1.26 1.32 1.35 1.39 1.41 1.42 1.45 1.52 1.64 1.67 1.75 1.87 1.98 2.03 2.00 2.09 2.28 2.34 2.43 2.61 2.80 2.96 2.80 2.62 2.72 2.66 2.84 2.77 2.64 2.62 2.79 2.98 3.16 3.21 3.23 3.42 3.39
0.28 0.42 0.55 0.83 1.15 1.37 1.52 1.80 1.95 1.71 1.65 1.54 1.65 1.80 1.51 1.23 1.23 1.26 1.23 1.29 1.33 1.38 1.53 1.69 1.79 1.99 2.05 2.09 2.19 2.09 2.22 2.34 2.54 2.63 2.45 2.45 2.61 2.63 2.65 2.65 2.54 2.51 2.53 2.63 2.91 2.91 3.02 3.09 3.12
0.38 0.48 0.58 0.76 0.90 1.25 1.68 1.91 1.61 1.81 1.86 1.77 1.63 1.63 1.48 1.12 1.01 1.10 1.04 1.06 1.15 1.23 1.37 1.55 1.82 2.04 2.05 1.93 2.04 2.10 2.11 2.25 2.34 2.34 2.25 2.38 2.51 2.70 2.68 2.67 2.66 2.53 2.45 2.56 2.71 2.55 2.77 2.80 2.85
0.34 0.51 0.60 0.82 0.93 1.04 1.35 1.65 1.22 1.42 1.41 1.29 1.31 1.16 1.08 1.01 0.82 0.93 0.98 0.93 1.00 1.07 1.20 1.39 1.62 1.82 1.88 1.84 1.87 2.04 2.18 2.22 2.20 2.15 2.19 2.23 2.25 2.33 2.35 2.33 2.33 2.35 2.53 2.68 2.60 2.55 2.61 2.66 2.57

GEFSSGP_prec_meanprecacc_366.txt.gz
Total_Precipitation_Accumulation
0.23 0.55 1.02 1.64 2.52 3.04 2.96 2.26 1.67 1.41 1.19 1.08 0.88 0.82 0.98 1.38 1.97 3.24 3.42 2.89 2.21 2.21 2.42 2.35 2.38 2.13 2.07 2.06 2.02 2.02 2.08 2.16 2.11 2.25 2.66 2.88 3.03 3.35 3.63 3.91 4.16 4.41 4.33 3.77 3.38 2.97 2.73 2.68 2.56
0.44 0.80 1.30 2.07 2.88 3.29 2.97 2.01 1.53 1.31 0.99 0.86 0.79 0.78 0.95 1.22 1.41 2.04 2.61 2.39 1.83 1.80 1.84 1.81 2.02 2.02 2.00 1.93 1.77 1.79 1.90 2.01 2.16 2.34 2.66 2.97 3.17 3.48 3.64 3.82 3.98 4.06 3.83 3.48 2.97 2.58 2.49 2.39 2.20
0.74 1.11 1.49 2.17 2.38 2.74 2.44 1.75 1.24 0.98 0.82 0.85 1.02 0.95 1.27 1.74 1.79 2.16 2.16 1.77 1.61 1.62 1.64 1.89 1.95 1.92 1.95 1.76 1.72 1.79 1.91 2.00 2.17 2.28 2.58 2.90 3.23 3.44 3.54 3.55 3.71 3.56 3.39 3.20 2.86 2.54 2.34 2.15 2.00
0.85 1.26 1.56 1.81 1.66 1.50 1.52 1.49 1.05 1.01 0.97 0.84 0.98 1.37 1.64 1.85 1.91 2.16 2.01 1.64 1.41 1.53 1.65 1.91 1.94 1.90 2.03 1.87 1.77 1.88 1.97 2.09 2.20 2.44 2.65 2.68 3.00 3.18 3.29 3.38 3.56 3.41 3.23 3.06 2.78 2.42 2.19 1.96 1.82
0.79 1.32 1.69 1.56 1.43 1.21 1.10 1.07 0.87 0.93 0.97 0.91 0.98 1.57 2.10 2.14 1.80 1.80 1.77 1.61 1.36 1.64 1.87 1.94 2.02 1.98 2.11 2.05 1.78 1.90 2.13 2.26 2.25 2.46 2.53 2.49 2.77 2.94 3.06 3.25 3.35 3.18 2.96 2.77 2.61 2.37 2.17 1.93 1.85
0.91 1.37 1.58 1.38 1.29 0.97 0.89 0.86 0.78 0.84 0.91 0.97 1.17 1.70 2.43 2.41 2.03 1.91 1.78 1.67 1.45 1.55 1.86 2.10 2.33 2.25 2.31 2.25 1.98 1.99 2.18 2.25 2.32 2.40 2.25 2.29 2.55 2.72 2.91 3.13 3.29 3.04 2.64 2.50 2.49 2.36 2.21 2.01 1.89
0.95 1.09 1.19 1.00 1.04 0.98 0.81 0.68 0.73 0.95 1.24 1.24 1.32 1.84 2.37 2.78 2.50 2.16 2.05 1.91 1.65 1.62 1.85 2.03 2.13 2.18 2.34 2.38 2.26 2.24 2.37 2.38 2.36 2.39 2.35 2.39 2.55 2.77 2.94 3.12 3.37 2.97 2.51 2.38 2.33 2.32 2.21 2.00 1.87
0.67 0.70 0.75 0.81 0.87 0.95 0.72 0.61 0.63 0.83 1.26 1.17 1.22 1.66 2.33 2.37 2.30 2.46 2.42 2.41 2.15 2.02 1.99 1.94 2.02 2.20 2.22 2.30 2.38 2.45 2.48 2.60 2.73 2.74 2.73 2.80 2.86 2.84 3.05 3.10 3.19 2.87 2.54 2.46 2.40 2.49 2.45 2.27 2.05
0.44 0.56 0.56 0.67 0.73 0.73 0.53 0.52 0.56 0.70 0.89 1.04 1.26 1.39 1.71 1.64 1.84 2.32 2.65 2.95 2.88 2.37 2.25 2.08 1.90 2.03 2.14 2.25 2.52 2.90 2.91 2.87 2.96 3.11 3.09 3.10 3.29 3.34 3.52 3.29 3.22 2.96 2.82 2.85 2.74 2.79 2.91 2.69 2.40
0.44 0.48 0.39 0.36 0.38 0.40 0.38 0.42 0.45 0.75 1.19 1.59 1.75 1.64 1.60 1.66 2.06 2.42 2.56 2.74 2.93 2.57 2.28 2.23 2.12 2.07 2.04 2.02 2.47 3.08 2.88 2.79 2.89 3.08 3.03 3.25 3.78 4.15 3.75 3.85 3.86 3.67 3.58 3.51 3.45 3.44 3.21 2.90 2.78
0.27 0.26 0.23 0.24 0.26 0.27 0.31 0.36 0.41 0.71 1.31 1.68 1.84 1.86 1.85 1.86 2.28 2.66 2.86 2.73 2.80 2.69 2.38 2.32 2.25 2.29 2.29 2.40 2.40 2.72 2.96 3.10 3.12 3.15 3.22 3.55 3.78 4.11 4.24 4.28 4.44 4.53 4.23 3.93 4.04 3.86 3.18 3.36 3.70
0.17 0.17 0.15 0.18 0.22 0.27 0.29 0.31 0.51 0.71 1.11 1.42 1.48 1.87 2.08 2.06 2.47 2.73 2.89 3.04 2.91 2.81 2.54 2.36 2.27 2.36 2.50 2.44 2.50 2.61 2.87 3.04 3.18 3.35 3.33 3.74 4.37 4.50 4.61 4.61 4.51 4.76 4.64 4.67 4.48 4.46 3.91 4.01 3.75
0.16 0.14 0.11 0.13 0.20 0.24 0.27 0.32 0.39 0.72 0.91 1.14 1.37 1.77 2.00 2.06 2.45 2.81 3.10 3.20 3.15 2.89 2.62 2.58 2.35 2.36 2.49 2.73 2.95 2.76 3.23 3.31 3.37 3.67 3.86 4.05 4.44 4.55 4.67 4.70 4.78 4.39 4.41 4.61 4.87 4.60 4.70 4.81 4.41
0.12 0.13 0.13 0.13 0.16 0.22 0.37 0.47 0.48 0.88 0.94 1.09 1.35 1.79 1.90 1.96 2.22 2.27 2.65 3.01 3.10 2.84 2.70 2.70 2.56 2.62 2.77 2.96 3.20 3.37 3.64 3.89 3.79 3.89 4.05 4.22 4.49 4.83 4.91 4.88 4.85 4.41 4.24 4.52 4.81 4.73 5.24 5.23 5.03
0.09 0.15 0.21 0.21 0.23 0.32 0.45 0.73 0.77 0.99 1.06 1.28 1.34 1.54 1.73 1.77 1.95 2.17 2.46 2.80 2.88 2.65 2.75 2.95 3.04 3.30 3.44 3.52 3.56 3.58 3.85 4.05 4.21 4.59 4.70 4.82 4.82 5.05 4.87 4.88 4.69 4.50 4.39 4.56 4.72 4.87 5.25 4.98 4.91
0.16 0.26 0.38 0.39 0.34 0.39 0.66 1.29 1.12 1.17 1.15 1.23 1.23 1.40 1.52 1.63 1.88 2.16 2.33 2.62 2.82 2.72 2.79 3.04 3.18 3.56 3.77 3.92 4.11 4.06 4.14 4.33 4.75 4.96 5.21 5.14 5.01 4.90 5.09 4.83 4.53 4.56 4.48 4.74 5.17 5.22 5.27 5.40 5.32
0.24 0.32 0.42 0.47 0.35 0.35 0.60 1.08 1.00 1.07 1.27 1.18 1.18 1.27 1.31 1.43 1.61 1.82 2.08 2.43 2.76 3.02 3.30 3.68 3.81 3.73 3.85 4.12 4.39 4.23 4.37 4.50 4.63 4.81 5.13 4.99 4.63 4.50 5.08 5.02 4.98 4.83 5.00 4.98 4.65 5.37 5.57 5.56 5.54
0.23 0.28 0.37 0.43 0.38 0.34 0.50 0.75 0.90 0.98 1.09 1.21 1.21 1.30 1.38 1.55 1.85 2.06 2.37 2.61 2.88 3.39 3.80 4.05 4.09 4.34 4.64 4.89 4.89 4.76 4.57 4.54 4.44 4.59 4.85 4.71 4.63 4.50 4.97 4.93 4.93 5.04 5.47 5.59 5.43 5.74 5.61 5.44 5.50
0.22 0.30 0.34 0.36 0.40 0.45 0.56 0.64 0.92 1.15 1.26 1.42 1.58 1.80 1.98 2.18 2.33 2.53 2.92 3.16 3.35 3.50 3.75 4.03 4.45 4.86 5.01 4.87 4.85 4.91 4.89 4.79 4.48 4.36 4.53 4.56 4.30 4.32 4.86 4.74 5.28 5.19 5.34 5.47 5.36 5.60 5.44 5.19 5.26
0.20 0.28 0.36 0.41 0.42 0.45 0.64 0.76 0.96 1.40 1.57 1.54 1.57 1.57 1.62 2.06 2.29 2.57 2.95 3.11 3.07 3.25 3.54 3.94 4.44 4.81 4.73 4.91 5.18 5.21 5.14 4.66 4.45 4.42 4.51 4.33 4.06 4.00 4.18 4.87 4.91 4.99 5.23 5.26 5.22 5.29 5.00 4.68 5.07
0.20 0.22 0.30 0.38 0.52 0.51 0.66 1.15 1.27 1.53 1.67 1.52 1.46 1.47 1.43 1.63 1.96 2.16 2.39 2.59 2.80 3.22 3.67 4.03 4.39 4.54 4.60 4.88 5.04 4.79 4.69 4.32 4.34 4.47 4.43 4.19 4.02 3.95 4.16 4.56 4.67 4.81 4.70 4.93 5.14 4.97 4.94 4.85 4.92
0.21 0.18 0.20 0.30 0.52 0.70 0.78 1.52 1.74 1.89 1.78 1.45 1.46 1.51 1.62 1.74 1.83 1.97 2.05 2.37 2.76 3.19 3.81 4.26 4.29 4.37 4.29 4.48 4.67 4.55 4.26 4.11 4.09 4.15 3.95 3.91 3.81 3.69 3.78 4.06 4.35 4.58 4.51 4.70 4.48 4.59 4.79 4.94 4.80
0.16 0.16 0.18 0.28 0.43 0.68 0.83 1.31 1.83 1.84 1.77 1.39 1.29 1.48 1.72 1.71 1.75 1.99 1.96 2.18 2.46 2.89 3.32 3.77 4.14 4.24 4.10 4.10 4.26 4.45 4.29 4.05 3.88 3.79 3.74 3.70 3.70 3.52 3.48 3.70 3.96 4.13 4.11 4.17 4.39 4.78 4.70 4.66 4.58
0.13 0.17 0.28 0.41 0.64 1.08 0.85 1.00 1.50 1.74 1.61 1.31 1.30 1.42 1.59 1.76 1.78 1.91 2.19 2.27 2.42 2.70 3.08 3.37 3.60 3.63 3.64 3.66 3.75 3.91 4.02 4.01 3.81 3.66 3.68 3.63 3.53 3.43 3.37 3.46 3.81 3.90 3.84 3.85 4.06 4.24 4.31 4.37 4.51
0.16 0.31 0.77 1.22 1.48 1.29 0.87 0.97 1.41 1.37 1.15 1.05 1.14 1.40 1.66 1.95 1.94 1.94 2.13 2.27 2.37 2.48 2.67 2.87 2.97 3.05 3.08 3.14 3.15 3.18 3.35 3.45 3.36 3.32 3.41 3.45 3.37 3.32 3.33 3.29 3.45 3.40 3.41 3.59 3.92 3.94 3.86 3.92 4.08
0.19 0.35 0.83 1.14 1.25 1.16 1.07 1.28 1.38 1.12 0.97 0.97 1.05 1.26 1.61 1.74 1.74 1.82 1.93 1.90 1.92 1.97 2.10 2.27 2.37 2.44 2.46 2.56 2.70 2.73 2.97 3.05 3.10 3.25 3.12 3.17 3.12 3.15 3.12 3.00 2.96 2.94 3.06 3.16 3.61 3.66 3.58 3.71 3.73
0.27 0.37 0.40 0.64 0.79 1.21 1.43 1.52 1.40 1.06 1.19 1.18 1.27 1.34 1.36 1.42 1.45 1.45 1.51 1.61 1.73 1.75 1.80 1.90 2.01 2.08 2.08 2.19 2.36 2.41 2.51 2.70 2.89 3.02 2.84 2.66 2.75 2.70 2.89 2.82 2.68 2.66 2.84 3.02 3.20 3.24 3.25 3.44 3.40
0.29 0.42 0.57 0.85 1.17 1.39 1.55 1.84 2.00 1.73 1.67 1.57 1.69 1.83 1.53 1.26 1.28 1.30 1.28 1.35 1.41 1.49 1.62 1.75 1.85 2.08 2.15 2.16 2.27 2.18 2.33 2.47 2.66 2.71 2.50 2.49 2.64 2.67 2.69 2.69 2.58 2.55 2.57 2.67 2.93 2.93 3.05 3.12 3.13
0.39 0.49 0.59 0.77 0.91 1.26 1.71 1.95 1.65 1.83 1.89 1.79 1.65 1.65 1.51 1.19 1.08 1.16 1.09 1.10 1.19 1.29 1.47 1.65 1.92 2.13 2.12 1.98 2.10 2.19 2.23 2.38 2.43 2.41 2.30 2.42 2.55 2.74 2.72 2.71 2.71 2.57 2.49 2.59 2.74 2.57 2.80 2.82 2.86
0.35 0.51 0.61 0.83 0.94 1.05 1.37 1.70 1.26 1.46 1.44 1.31 1.32 1.18 1.12 1.10 0.90 0.99 1.05 1.00 1.04 1.11 1.25 1.47 1.71 1.90 1.94 1.88 1.91 2.09 2.23 2.28 2.26 2.20 2.23 2.26 2.28 2.36 2.38 2.35 2.35 2.37 2.56 2.72 2.63 2.58 2.65 2.69 2.60

GEFSSGP_prec_meanprecacc_372.txt.gz
Total_Precipitation_Accumulation
0.23 0.56 1.03 1.66 2.56 3.08 3.00 2.32 1.71 1.44 1.21 1.10 0.90 0.84 0.99 1.40 2.01 3.31 3.48 2.93 2.26 2.28 2.54 2.46 2.48 2.22 2.14 2.12 2.08 2.08 2.14 2.23 2.17 2.30 2.70 2.92 3.07 3.38 3.65 3.95 4.20 4.45 4.38 3.81 3.41 3.02 2.78 2.72 2.59
0.45 0.81 1.31 2.11 2.91 3.31 3.02 2.05 1.56 1.33 1.00 0.87 0.80 0.79 0.96 1.23 1.44 2.09 2.65 2.43 1.88 1.88 1.95 1.92 2.10 2.09 2.06 1.97 1.82 1.83 1.95 2.08 2.21 2.38 2.70 3.00 3.20 3.52 3.67 3.86 4.02 4.10 3.88 3.53 3.01 2.63 2.54 2.43 2.23
0.75 1.12 1.52 2.21 2.41 2.77 2.48 1.78 1.26 1.00 0.84 0.85 1.02 0.96 1.29 1.77 1.83 2.21 2.21 1.82 1.66 1.67 1.72 1.99 2.05 2.00 2.01 1.82 1.77 1.84 1.97 2.06 2.22 2.31 2.61 2.93 3.27 3.47 3.58 3.59 3.74 3.60 3.43 3.24 2.90 2.59 2.39 2.19 2.04
0.86 1.28 1.59 1.85 1.69 1.53 1.54 1.50 1.07 1.02 0.98 0.84 0.99 1.40 1.68 1.88 1.94 2.19 2.04 1.67 1.44 1.56 1.69 1.97 2.02 1.99 2.11 1.94 1.83 1.93 2.03 2.14 2.24 2.49 2.69 2.71 3.03 3.21 3.32 3.41 3.60 3.46 3.27 3.10 2.83 2.46 2.25 2.01 1.88
0.80 1.35 1.71 1.58 1.44 1.23 1.11 1.08 0.88 0.94 0.98 0.91 0.99 1.60 2.14 2.18 1.82 1.83 1.80 1.64 1.39 1.67 1.91 2.00 2.09 2.07 2.20 2.13 1.85 1.97 2.19 2.31 2.30 2.52 2.59 2.54 2.81 2.98 3.10 3.28 3.39 3.23 3.01 2.81 2.65 2.41 2.23 2.00 1.91
0.93 1.40 1.60 1.39 1.30 0.98 0.89 0.86 0.79 0.84 0.92 0.97 1.17 1.71 2.48 2.45 2.06 1.94 1.82 1.71 1.49 1.59 1.90 2.15 2.39 2.32 2.38 2.30 2.04 2.05 2.24 2.32 2.39 2.46 2.30 2.33 2.59 2.77 2.94 3.16 3.32 3.10 2.72 2.56 2.54 2.42 2.28 2.08 1.96
0.98 1.12 1.20 1.01 1.05 0.99 0.82 0.69 0.73 0.95 1.24 1.24 1.32 1.85 2.40 2.82 2.54 2.21 2.11 1.98 1.70 1.66 1.87 2.07 2.19 2.24 2.41 2.45 2.32 2.28 2.42 2.42 2.40 2.43 2.38 2.42 2.58 2.81 2.99 3.16 3.41 3.01 2.56 2.43 2.40 2.40 2.30 2.09 1.97
0.70 0.73 0.77 0.82 0.88 0.97 0.73 0.62 0.63 0.84 1.26 1.17 1.22 1.67 2.36 2.40 2.33 2.51 2.47 2.47 2.19 2.06 2.03 1.98 2.07 2.26 2.28 2.35 2.43 2.48 2.51 2.63 2.77 2.79 2.80 2.88 2.91 2.89 3.10 3.16 3.24 2.91 2.59 2.51 2.47 2.57 2.53 2.37 2.16
0.45 0.59 0.58 0.68 0.74 0.76 0.55 0.54 0.56 0.70 0.89 1.05 1.28 1.42 1.75 1.67 1.87 2.35 2.68 2.98 2.92 2.41 2.29 2.12 1.96 2.09 2.19 2.29 2.55 2.92 2.93 2.91 3.01 3.16 3.16 3.21 3.33 3.37 3.57 3.36 3.28 3.00 2.87 2.91 2.81 2.86 2.97 2.75 2.48
0.46 0.49 0.40 0.37 0.39 0.41 0.38 0.43 0.45 0.75 1.20 1.60 1.76 1.66 1.63 1.69 2.09 2.45 2.59 2.78 2.98 2.63 2.35 2.29 2.17 2.11 2.08 2.05 2.48 3.09 2.89 2.81 2.92 3.12 3.08 3.29 3.80 4.17 3.77 3.90 3.93 3.74 3.66 3.59 3.53 3.50 3.27 2.97 2.84
0.29 0.27 0.24 0.25 0.26 0.27 0.32 0.37 0.41 0.71 1.32 1.69 1.85 1.87 1.86 1.87 2.30 2.69 2.91 2.78 2.85 2.73 2.42 2.36 2.27 2.30 2.31 2.41 2.41 2.72 2.96 3.12 3.15 3.17 3.24 3.57 3.80 4.13 4.26 4.31 4.50 4.61 4.33 4.01 4.13 3.93 3.26 3.44 3.77
0.18 0.18 0.15 0.19 0.22 0.28 0.30 0.32 0.52 0.72 1.11 1.42 1.49 1.87 2.09 2.07 2.48 2.74 2.91 3.06 2.93 2.83 2.56 2.38 2.28 2.37 2.51 2.44 2.51 2.61 2.88 3.05 3.20 3.37 3.35 3.76 4.39 4.53 4.63 4.64 4.55 4.80 4.69 4.73 4.55 4.53 3.98 4.08 3.82
0.16 0.14 0.12 0.14 0.21 0.25 0.28 0.32 0.39 0.73 0.91 1.15 1.38 1.77 2.01 2.06 2.46 2.81 3.11 3.22 3.17 2.91 2.63 2.59 2.36 2.37 2.50 2.73 2.96 2.77 3.23 3.31 3.37 3.67 3.87 4.07 4.46 4.57 4.70 4.73 4.81 4.42 4.44 4.65 4.92 4.66 4.76 4.86 4.47
0.13 0.14 0.14 0.14 0.17 0.23 0.37 0.47 0.48 0.89 0.94 1.09 1.36 1.81 1.92 1.97 2.23 2.28 2.66 3.02 3.11 2.84 2.71 2.71 2.57 2.63 2.77 2.96 3.21 3.38 3.64 3.89 3.79 3.90 4.05 4.22 4.50 4.85 4.92 4.90 4.88 4.44 4.26 4.54 4.84 4.76 5.29 5.28 5.10
0.10 0.16 0.21 0.21 0.24 0.33 0.46 0.74 0.77 0.99 1.06 1.29 1.35 1.55 1.75 1.79 1.96 2.18 2.47 2.81 2.89 2.66 2.76 2.96 3.05 3.30 3.45 3.53 3.58 3.60 3.86 4.06 4.22 4.59 4.70 4.82 4.83 5.06 4.89 4.89 4.71 4.53 4.43 4.59 4.76 4.92 5.31 5.05 4.98
0.17 0.27 0.39 0.39 0.35 0.40 0.67 1.30 1.13 1.17 1.16 1.24 1.24 1.41 1.52 1.64 1.88 2.17 2.33 2.63 2.83 2.72 2.80 3.05 3.19 3.57 3.78 3.94 4.13 4.07 4.16 4.34 4.76 4.97 5.21 5.15 5.03 4.92 5.11 4.88 4.59 4.63 4.57 4.84 5.26 5.31 5.37 5.48 5.40
0.25 0.33 0.43 0.48 0.35 0.36 0.61 1.09 1.00 1.07 1.28 1.20 1.18 1.27 1.31 1.43 1.61 1.82 2.08 2.44 2.77 3.03 3.31 3.70 3.83 3.76 3.87 4.14 4.41 4.25 4.38 4.51 4.64 4.82 5.15 5.01 4.66 4.54 5.13 5.07 5.07 4.93 5.12 5.10 4.75 5.47 5.65 5.63 5.61
0.23 0.29 0.38 0.44 0.39 0.34 0.51 0.76 0.91 0.99 1.10 1.21 1.21 1.30 1.39 1.55 1.85 2.06 2.38 2.61 2.88 3.40 3.81 4.07 4.12 4.37 4.69 4.93 4.93 4.78 4.58 4.55 4.45 4.61 4.87 4.74 4.66 4.54 5.00 4.96 4.97 5.11 5.55 5.67 5.51 5.81 5.67 5.49 5.55
0.22 0.30 0.34 0.36 0.41 0.46 0.56 0.64 0.92 1.15 1.27 1.42 1.58 1.80 1.98 2.19 2.33 2.53 2.92 3.16 3.36 3.51 3.76 4.05 4.48 4.90 5.06 4.91 4.88 4.92 4.91 4.81 4.50 4.38 4.55 4.58 4.32 4.35 4.89 4.78 5.32 5.23 5.39 5.54 5.42 5.64 5.47 5.23 5.31
0.20 0.28 0.36 0.41 0.42 0.46 0.65 0.77 0.97 1.41 1.58 1.54 1.57 1.57 1.62 2.06 2.29 2.57 2.95 3.11 3.08 3.27 3.56 3.96 4.47 4.84 4.77 4.95 5.21 5.24 5.18 4.70 4.50 4.47 4.55 4.36 4.09 4.04 4.22 4.91 4.96 5.04 5.27 5.31 5.27 5.33 5.04 4.72 5.13
0.20 0.23 0.30 0.38 0.52 0.52 0.68 1.16 1.28 1.54 1.68 1.52 1.46 1.47 1.44 1.63 1.97 2.16 2.40 2.60 2.81 3.23 3.68 4.05 4.41 4.57 4.65 4.91 5.06 4.82 4.73 4.39 4.42 4.55 4.48 4.24 4.07 4.01 4.23 4.63 4.73 4.86 4.75 4.98 5.20 5.03 4.99 4.90 4.98
0.21 0.19 0.21 0.30 0.52 0.70 0.78 1.53 1.75 1.89 1.78 1.46 1.46 1.51 1.62 1.74 1.83 1.97 2.05 2.38 2.77 3.20 3.83 4.29 4.33 4.41 4.33 4.51 4.69 4.57 4.29 4.16 4.17 4.23 4.02 3.97 3.88 3.77 3.88 4.17 4.45 4.65 4.57 4.77 4.56 4.66 4.86 5.01 4.86
0.17 0.16 0.18 0.29 0.43 0.68 0.83 1.31 1.83 1.85 1.78 1.39 1.29 1.48 1.72 1.71 1.75 1.99 1.97 2.19 2.48 2.91 3.35 3.79 4.17 4.28 4.14 4.15 4.30 4.48 4.32 4.09 3.92 3.83 3.78 3.76 3.78 3.61 3.57 3.80 4.07 4.23 4.20 4.26 4.50 4.90 4.82 4.78 4.68
0.13 0.17 0.28 0.41 0.64 1.08 0.85 1.01 1.50 1.74 1.61 1.31 1.30 1.42 1.59 1.77 1.78 1.91 2.20 2.29 2.44 2.73 3.12 3.41 3.66 3.69 3.70 3.73 3.82 3.96 4.06 4.05 3.87 3.71 3.73 3.69 3.60 3.52 3.45 3.54 3.90 4.00 3.95 3.96 4.20 4.40 4.46 4.49 4.60
0.16 0.31 0.77 1.22 1.48 1.29 0.87 0.98 1.41 1.37 1.15 1.05 1.14 1.40 1.66 1.95 1.95 1.95 2.14 2.27 2.39 2.51 2.71 2.91 3.00 3.09 3.13 3.21 3.24 3.27 3.42 3.50 3.41 3.37 3.47 3.52 3.45 3.39 3.38 3.34 3.50 3.45 3.48 3.67 4.03 4.06 3.95 4.01 4.16
0.19 0.35 0.84 1.15 1.25 1.17 1.08 1.28 1.38 1.12 0.97 0.97 1.05 1.27 1.61 1.74 1.74 1.83 1.94 1.91 1.94 2.01 2.15 2.31 2.40 2.47 2.48 2.59 2.74 2.78 3.02 3.11 3.17 3.33 3.19 3.24 3.20 3.23 3.17 3.03 2.99 2.97 3.09 3.20 3.66 3.72 3.64 3.78 3.80
0.27 0.37 0.40 0.64 0.79 1.22 1.47 1.55 1.40 1.07 1.20 1.18 1.28 1.34 1.37 1.43 1.45 1.47 1.53 1.62 1.75 1.78 1.83 1.93 2.03 2.10 2.10 2.22 2.39 2.44 2.54 2.76 2.95 3.10 2.92 2.73 2.82 2.77 2.96 2.87 2.71 2.69 2.86 3.05 3.23 3.27 3.29 3.49 3.46
0.29 0.43 0.57 0.86 1.17 1.40 1.58 1.87 2.02 1.75 1.69 1.58 1.69 1.83 1.53 1.27 1.29 1.32 1.30 1.37 1.44 1.51 1.64 1.77 1.88 2.12 2.19 2.19 2.30 2.22 2.38 2.54 2.71 2.76 2.54 2.53 2.68 2.71 2.73 2.72 2.63 2.59 2.61 2.70 2.96 2.95 3.10 3.17 3.18
0.39 0.49 0.59 0.77 0.91 1.27 1.72 1.96 1.66 1.85 1.91 1.81 1.66 1.66 1.53 1.20 1.09 1.17 1.10 1.12 1.22 1.31 1.50 1.69 1.96 2.18 2.19 2.06 2.16 2.24 2.27 2.42 2.46 2.43 2.33 2.45 2.58 2.76 2.74 2.73 2.73 2.60 2.52 2.63 2.77 2.60 2.83 2.87 2.91
0.35 0.51 0.61 0.83 0.94 1.05 1.37 1.70 1.27 1.46 1.45 1.32 1.34 1.19 1.14 1.12 0.92 1.01 1.06 1.01 1.06 1.13 1.28 1.51 1.76 1.95 1.99 1.93 1.97 2.15 2.28 2.33 2.30 2.24 2.26 2.30 2.31 2.38 2.40 2.36 2.36 2.38 2.57 2.74 2.66 2.60 2.69 2.75 2.64

GEFSSGP_prec_meanprecacc_378.txt.gz
Total_Precipitation_Accumulation
0.23 0.56 1.04 1.67 2.58 3.11 3.04 2.35 1.73 1.45 1.23 1.11 0.91 0.84 1.00 1.41 2.04 3.36 3.53 3.00 2.35 2.39 2.66 2.59 2.61 2.35 2.25 2.21 2.16 2.17 2.23 2.32 2.26 2.38 2.76 2.98 3.12 3.45 3.72 4.03 4.28 4.54 4.46 3.89 3.48 3.08 2.83 2.76 2.64
0.45 0.81 1.32 2.12 2.94 3.34 3.05 2.07 1.57 1.34 1.01 0.87 0.80 0.79 0.96 1.23 1.44 2.11 2.69 2.50 1.99 1.99 2.05 2.01 2.20 2.19 2.16 2.07 1.91 1.92 2.05 2.17 2.30 2.46 2.76 3.05 3.25 3.59 3.75 3.94 4.10 4.19 3.96 3.59 3.08 2.69 2.59 2.48 2.28
0.76 1.13 1.53 2.22 2.43 2.80 2.51 1.80 1.27 1.00 0.84 0.86 1.02 0.96 1.30 1.79 1.84 2.23 2.24 1.88 1.77 1.80 1.82 2.08 2.14 2.09 2.10 1.89 1.86 1.94 2.06 2.15 2.31 2.38 2.66 2.96 3.31 3.54 3.66 3.66 3.80 3.65 3.50 3.29 2.95 2.63 2.43 2.23 2.08
0.86 1.28 1.60 1.86 1.71 1.56 1.56 1.51 1.07 1.03 0.98 0.84 0.99 1.41 1.71 1.91 1.97 2.21 2.07 1.71 1.53 1.68 1.82 2.09 2.12 2.08 2.19 2.00 1.90 2.02 2.12 2.23 2.32 2.56 2.76 2.76 3.07 3.27 3.40 3.48 3.67 3.51 3.33 3.16 2.88 2.51 2.28 2.04 1.91
0.81 1.35 1.72 1.59 1.46 1.25 1.12 1.08 0.88 0.94 0.98 0.92 1.00 1.62 2.19 2.22 1.86 1.86 1.84 1.69 1.43 1.75 1.99 2.09 2.19 2.15 2.28 2.21 1.94 2.05 2.29 2.42 2.40 2.61 2.67 2.62 2.89 3.07 3.18 3.34 3.45 3.30 3.08 2.88 2.73 2.47 2.28 2.04 1.95
0.94 1.41 1.61 1.40 1.31 0.99 0.90 0.86 0.79 0.84 0.92 0.98 1.17 1.73 2.52 2.52 2.12 2.01 1.87 1.74 1.53 1.64 1.98 2.23 2.46 2.39 2.45 2.38 2.12 2.12 2.31 2.39 2.46 2.52 2.37 2.42 2.68 2.85 3.02 3.22 3.39 3.18 2.82 2.65 2.64 2.52 2.36 2.16 2.03
0.99 1.13 1.21 1.01 1.06 1.00 0.83 0.69 0.73 0.95 1.24 1.24 1.32 1.86 2.45 2.92 2.66 2.33 2.21 2.05 1.78 1.72 1.95 2.14 2.25 2.29 2.46 2.51 2.37 2.33 2.47 2.47 2.46 2.49 2.46 2.51 2.68 2.89 3.07 3.24 3.48 3.09 2.64 2.54 2.50 2.51 2.40 2.19 2.06
0.71 0.74 0.77 0.82 0.89 0.98 0.74 0.62 0.64 0.84 1.27 1.18 1.23 1.70 2.45 2.52 2.45 2.60 2.53 2.55 2.27 2.13 2.10 2.04 2.14 2.30 2.31 2.40 2.48 2.53 2.56 2.68 2.83 2.87 2.90 3.01 3.03 2.97 3.17 3.24 3.32 3.00 2.68 2.62 2.57 2.66 2.63 2.46 2.23
0.46 0.60 0.59 0.69 0.75 0.77 0.55 0.54 0.56 0.71 0.90 1.08 1.32 1.48 1.83 1.74 1.92 2.37 2.70 3.04 2.97 2.46 2.35 2.20 2.04 2.16 2.24 2.35 2.59 2.97 2.97 2.95 3.07 3.23 3.31 3.39 3.44 3.46 3.65 3.44 3.38 3.09 2.97 3.03 2.93 2.96 3.04 2.83 2.55
0.47 0.50 0.40 0.37 0.39 0.42 0.39 0.43 0.45 0.76 1.20 1.61 1.79 1.71 1.68 1.73 2.12 2.48 2.64 2.83 3.04 2.69 2.43 2.37 2.22 2.16 2.12 2.08 2.52 3.14 2.93 2.86 2.98 3.19 3.16 3.36 3.86 4.23 3.83 3.98 4.03 3.85 3.78 3.71 3.64 3.61 3.36 3.06 2.92
0.30 0.28 0.24 0.25 0.26 0.28 0.32 0.37 0.41 0.72 1.32 1.69 1.86 1.88 1.88 1.89 2.32 2.72 2.94 2.82 2.90 2.80 2.51 2.42 2.31 2.35 2.34 2.44 2.44 2.76 3.00 3.16 3.21 3.22 3.30 3.64 3.86 4.18 4.33 4.40 4.60 4.73 4.46 4.16 4.29 4.09 3.40 3.58 3.89
0.18 0.18 0.16 0.19 0.22 0.28 0.30 0.32 0.52 0.72 1.12 1.43 1.49 1.88 2.09 2.08 2.49 2.76 2.93 3.08 2.96 2.87 2.62 2.44 2.32 2.40 2.54 2.48 2.53 2.64 2.90 3.08 3.23 3.39 3.38 3.81 4.45 4.59 4.69 4.71 4.63 4.90 4.81 4.87 4.71 4.67 4.10 4.20 3.94
0.16 0.14 0.12 0.14 0.21 0.25 0.28 0.32 0.39 0.73 0.92 1.15 1.38 1.78 2.01 2.06 2.46 2.83 3.13 3.23 3.18 2.92 2.66 2.63 2.39 2.39 2.53 2.77 2.99 2.79 3.26 3.34 3.40 3.70 3.90 4.11 4.51 4.61 4.74 4.78 4.88 4.50 4.53 4.77 5.05 4.77 4.86 4.97 4.57
0.13 0.14 0.14 0.14 0.18 0.23 0.37 0.48 0.48 0.90 0.95 1.09 1.37 1.81 1.92 1.97 2.23 2.29 2.67 3.03 3.12 2.85 2.71 2.72 2.58 2.65 2.80 2.98 3.22 3.39 3.66 3.91 3.82 3.92 4.09 4.26 4.54 4.89 4.96 4.93 4.94 4.50 4.33 4.64 4.94 4.86 5.39 5.39 5.21
0.10 0.16 0.21 0.21 0.24 0.34 0.46 0.75 0.77 1.00 1.06 1.29 1.35 1.56 1.75 1.79 1.97 2.19 2.48 2.82 2.90 2.67 2.76 2.97 3.06 3.33 3.47 3.55 3.59 3.60 3.87 4.07 4.24 4.62 4.73 4.85 4.86 5.10 4.93 4.92 4.75 4.58 4.49 4.67 4.86 5.04 5.42 5.15 5.08
0.17 0.27 0.39 0.40 0.35 0.41 0.68 1.32 1.13 1.17 1.16 1.24 1.24 1.41 1.53 1.64 1.89 2.17 2.33 2.64 2.84 2.73 2.81 3.06 3.20 3.59 3.81 3.96 4.15 4.08 4.16 4.35 4.78 4.99 5.25 5.18 5.05 4.96 5.16 4.93 4.64 4.68 4.64 4.93 5.37 5.42 5.47 5.58 5.49
0.25 0.33 0.44 0.48 0.35 0.36 0.61 1.11 1.00 1.07 1.28 1.20 1.18 1.27 1.31 1.43 1.62 1.83 2.09 2.44 2.77 3.04 3.32 3.70 3.84 3.77 3.90 4.17 4.44 4.27 4.40 4.52 4.66 4.85 5.18 5.04 4.68 4.57 5.18 5.14 5.14 5.01 5.22 5.20 4.86 5.58 5.75 5.73 5.71
0.24 0.29 0.38 0.44 0.39 0.35 0.51 0.76 0.91 0.99 1.10 1.21 1.21 1.30 1.39 1.55 1.86 2.06 2.38 2.61 2.89 3.41 3.82 4.09 4.13 4.38 4.70 4.95 4.94 4.80 4.60 4.56 4.47 4.63 4.91 4.77 4.70 4.58 5.04 5.00 5.03 5.16 5.62 5.76 5.60 5.89 5.74 5.56 5.63
0.22 0.30 0.34 0.36 0.41 0.46 0.56 0.65 0.92 1.15 1.27 1.42 1.58 1.80 1.98 2.19 2.33 2.54 2.92 3.17 3.37 3.53 3.78 4.07 4.49 4.91 5.07 4.93 4.89 4.94 4.93 4.83 4.52 4.40 4.57 4.62 4.36 4.40 4.94 4.83 5.37 5.28 5.44 5.59 5.47 5.68 5.51 5.26 5.34
0.20 0.28 0.36 0.41 0.42 0.46 0.65 0.77 0.97 1.41 1.58 1.54 1.57 1.57 1.62 2.06 2.29 2.57 2.95 3.12 3.09 3.28 3.57 3.97 4.48 4.85 4.79 4.97 5.23 5.26 5.21 4.73 4.54 4.51 4.60 4.41 4.14 4.09 4.27 4.97 5.01 5.10 5.33 5.36 5.32 5.38 5.08 4.76 5.17
0.21 0.23 0.30 0.38 0.52 0.52 0.68 1.17 1.28 1.54 1.68 1.52 1.46 1.47 1.44 1.63 1.97 2.16 2.40 2.61 2.82 3.24 3.69 4.07 4.43 4.58 4.66 4.92 5.08 4.84 4.77 4.43 4.47 4.60 4.54 4.29 4.12 4.06 4.29 4.69 4.79 4.91 4.80 5.04 5.27 5.09 5.04 4.96 5.03
0.21 0.19 0.21 0.30 0.53 0.71 0.79 1.54 1.75 1.89 1.78 1.46 1.46 1.51 1.62 1.74 1.83 1.97 2.05 2.39 2.78 3.22 3.84 4.30 4.34 4.43 4.35 4.53 4.71 4.59 4.32 4.20 4.20 4.27 4.07 4.03 3.93 3.82 3.94 4.23 4.51 4.70 4.62 4.83 4.63 4.72 4.94 5.09 4.94
0.17 0.16 0.18 0.29 0.43 0.69 0.83 1.32 1.83 1.85 1.78 1.39 1.29 1.48 1.72 1.71 1.75 1.99 1.97 2.20 2.49 2.92 3.36 3.81 4.19 4.30 4.17 4.19 4.34 4.52 4.34 4.12 3.95 3.86 3.82 3.82 3.84 3.67 3.63 3.86 4.15 4.31 4.27 4.34 4.58 4.98 4.89 4.86 4.77
0.14 0.18 0.28 0.41 0.64 1.09 0.86 1.01 1.51 1.74 1.61 1.32 1.31 1.43 1.59 1.77 1.78 1.91 2.20 2.29 2.45 2.74 3.13 3.43 3.69 3.72 3.73 3.76 3.84 3.98 4.07 4.07 3.90 3.73 3.77 3.73 3.65 3.58 3.53 3.62 3.99 4.08 4.03 4.04 4.28 4.47 4.52 4.56 4.69
0.16 0.32 0.78 1.23 1.49 1.30 0.87 0.98 1.41 1.38 1.16 1.06 1.14 1.40 1.67 1.95 1.95 1.95 2.14 2.28 2.39 2.52 2.72 2.92 3.02 3.10 3.14 3.22 3.26 3.28 3.44 3.53 3.44 3.40 3.50 3.56 3.48 3.42 3.45 3.42 3.60 3.55 3.57 3.76 4.11 4.12 4.01 4.07 4.23
0.19 0.35 0.84 1.15 1.26 1.17 1.08 1.28 1.39 1.12 0.98 0.98 1.07 1.27 1.61 1.74 1.74 1.83 1.94 1.92 1.95 2.02 2.17 2.32 2.41 2.47 2.48 2.60 2.75 2.79 3.03 3.13 3.18 3.35 3.22 3.30 3.26 3.28 3.22 3.09 3.05 3.06 3.19 3.30 3.78 3.82 3.72 3.85 3.85
0.27 0.37 0.40 0.64 0.79 1.23 1.47 1.55 1.40 1.07 1.21 1.19 1.28 1.34 1.37 1.43 1.45 1.47 1.53 1.62 1.76 1.79 1.85 1.94 2.04 2.10 2.11 2.22 2.40 2.45 2.56 2.77 2.96 3.11 2.94 2.75 2.85 2.82 3.02 2.94 2.78 2.75 2.92 3.10 3.30 3.37 3.41 3.59 3.54
0.29 0.43 0.57 0.86 1.18 1.41 1.58 1.87 2.02 1.75 1.70 1.58 1.69 1.83 1.53 1.27 1.29 1.32 1.30 1.37 1.44 1.52 1.65 1.78 1.88 2.13 2.20 2.21 2.31 2.24 2.40 2.55 2.72 2.78 2.56 2.55 2.69 2.74 2.76 2.76 2.66 2.62 2.64 2.74 3.00 3.00 3.15 3.24 3.26
0.39 0.49 0.59 0.77 0.92 1.27 1.72 1.96 1.66 1.85 1.91 1.81 1.67 1.66 1.53 1.21 1.09 1.17 1.10 1.12 1.22 1.32 1.51 1.70 1.97 2.19 2.20 2.07 2.18 2.26 2.29 2.44 2.48 2.46 2.35 2.47 2.60 2.78 2.76 2.75 2.75 2.63 2.54 2.66 2.81 2.64 2.86 2.90 2.94
0.35 0.51 0.61 0.84 0.94 1.05 1.38 1.71 1.27 1.46 1.46 1.33 1.35 1.19 1.14 1.13 0.93 1.01 1.07 1.01 1.06 1.13 1.28 1.52 1.77 1.96 2.01 1.94 1.98 2.16 2.30 2.35 2.33 2.27 2.29 2.33 2.34 2.40 2.42 2.38 2.39 2.41 2.59 2.77 2.70 2.64 2.72 2.78 2.67